GW3448 Weather Reports


time (UTC)temp
C
wind
direction
speed
KPH
gust
KPH
rain 1hr
cm
rain 24hr
cm
rain mn
cm
humidity
%
barometer
mb
20260507210301 25 226 3.2 14.5 0.00 0.00 0.00 30 1013.6
20260507205955 25 159 3.2 14.5 0.00 0.00 0.00 30 1013.7
20260507205944 25 274 3.2 14.5 0.00 0.00 0.00 30 1013.7
20260507205932 25 207 6.4 14.5 0.00 0.00 0.00 30 1013.7
20260507205919 25 148 8.0 14.5 0.00 0.00 0.00 31 1013.8
20260507205907 25 160 6.4 14.5 0.00 0.00 0.00 31 1013.8
20260507205403 25 216 6.4 14.5 0.00 0.00 0.00 32 1013.8
20260507205035 25 157 6.4 12.9 0.00 0.00 0.00 30 1013.8
20260507204937 25 176 6.4 12.9 0.00 0.00 0.00 31 1013.7
20260507204834 25 163 4.8 12.9 0.00 0.00 0.00 32 1013.8
20260507204733 25 165 3.2 16.1 0.00 0.00 0.00 33 1013.8
20260507204633 24 205 3.2 19.3 0.00 0.00 0.00 32 1013.8
20260507204532 24 189 4.8 19.3 0.00 0.00 0.00 31 1013.7
20260507204432 24 261 3.2 19.3 0.00 0.00 0.00 32 1013.8
20260507204325 24 282 6.4 19.3 0.00 0.00 0.00 33 1013.8
20260507204226 24 165 6.4 19.3 0.00 0.00 0.00 33 1013.9
20260507204124 24 161 4.8 19.3 0.00 0.00 0.00 34 1013.8
20260507204024 24 146 3.2 19.3 0.00 0.00 0.00 33 1013.8
20260507203923 24 134 8.0 19.3 0.00 0.00 0.00 32 1013.9
20260507203822 24 178 9.7 19.3 0.00 0.00 0.00 32 1013.9
20260507203735 24 187 6.4 14.5 0.00 0.00 0.00 33 1013.9
20260507203719 24 159 6.4 14.5 0.00 0.00 0.00 34 1013.9
20260507203707 24 169 6.4 14.5 0.00 0.00 0.00 34 1013.9
20260507203644 24 129 8.0 14.5 0.00 0.00 0.00 35 1013.8
20260507203343 24 169 8.0 19.3 0.00 0.00 0.00 34 1013.9
20260507203020 24 157 3.2 19.3 0.00 0.00 0.00 33 1013.8
20260507202917 24 82 1.6 19.3 0.00 0.00 0.00 33 1013.8
20260507202816 24 104 1.6 19.3 0.00 0.00 0.00 34 1013.8
20260507202715 24 272 1.6 19.3 0.00 0.00 0.00 34 1013.8
20260507202609 24 186 4.8 19.3 0.00 0.00 0.00 33 1013.9
20260507202516 24 187 6.4 19.3 0.00 0.00 0.00 35 1013.8
20260507202408 24 159 9.7 19.3 0.00 0.00 0.00 32 1013.9
20260507202307 24 155 9.7 19.3 0.00 0.00 0.00 33 1013.9
20260507202207 24 158 6.4 14.5 0.00 0.00 0.00 34 1013.9
20260507202106 24 144 6.4 14.5 0.00 0.00 0.00 33 1013.8
20260507202013 24 135 6.4 14.5 0.00 0.00 0.00 32 1013.8
20260507201903 24 130 6.4 14.5 0.00 0.00 0.00 32 1013.9
20260507201801 24 169 4.8 14.5 0.00 0.00 0.00 32 1013.9
20260507201701 24 115 6.4 12.9 0.00 0.00 0.00 31 1013.9
20260507201603 24 259 4.8 12.9 0.00 0.00 0.00 31 1013.9
20260507201515 24 249 6.4 12.9 0.00 0.00 0.00 32 1013.9
20260507201403 24 215 6.4 12.9 0.00 0.00 0.00 32 1013.9
20260507201305 24 216 6.4 12.9 0.00 0.00 0.00 32 1013.9
20260507201203 24 106 6.4 12.9 0.00 0.00 0.00 33 1014.0
20260507201103 24 255 6.4 12.9 0.00 0.00 0.00 31 1014.0
20260507201010 24 155 6.4 12.9 0.00 0.00 0.00 33 1014.0
20260507200933 24 230 4.8 12.9 0.00 0.00 0.00 34 1014.1
20260507200923 24 188 3.2 12.9 0.00 0.00 0.00 36 1014.1
20260507200601 24 157 3.2 12.9 0.00 0.00 0.00 34 1014.1
20260507200515 24 183 3.2 12.9 0.00 0.00 0.00 33 1014.1
20260507200401 24 171 3.2 12.9 0.00 0.00 0.00 33 1014.1
20260507200303 24 151 6.4 12.9 0.00 0.00 0.00 33 1014.1
20260507200202 24 222 4.8 12.9 0.00 0.00 0.00 33 1014.2
20260507200103 24 197 3.2 12.9 0.00 0.00 0.00 34 1014.1
20260507200045 24 70 6.4 17.7 0.00 0.00 0.00 36 1014.1
20260507200021 24 156 4.8 17.7 0.00 0.00 0.00 36 1014.1
20260507195700 23 213 1.6 17.7 0.00 0.00 0.00 38 1014.1
20260507195602 23 282 3.2 17.7 0.00 0.00 0.00 36 1014.1
20260507195504 23 206 3.2 17.7 0.00 0.00 0.00 37 1014.2
20260507195401 23 156 6.4 17.7 0.00 0.00 0.00 37 1014.2
20260507195305 23 213 6.4 17.7 0.00 0.00 0.00 37 1014.2
20260507195203 23 170 4.8 17.7 0.00 0.00 0.00 37 1014.3
20260507195101 23 194 4.8 17.7 0.00 0.00 0.00 37 1014.2
20260507195006 23 182 6.4 14.5 0.00 0.00 0.00 37 1014.3
20260507194902 23 201 4.8 14.5 0.00 0.00 0.00 36 1014.3
20260507194830 23 165 3.2 19.3 0.00 0.00 0.00 36 1014.3
20260507194816 23 284 6.4 19.3 0.00 0.00 0.00 36 1014.3
20260507194805 23 211 8.0 19.3 0.00 0.00 0.00 36 1014.3
20260507194521 23 199 6.4 19.3 0.00 0.00 0.00 37 1014.4
20260507194158 23 217 6.4 19.3 0.00 0.00 0.00 38 1014.4
20260507194058 23 153 9.7 19.3 0.00 0.00 0.00 37 1014.3
20260507194002 23 121 9.7 19.3 0.00 0.00 0.00 38 1014.3
20260507193930 23 195 4.8 19.3 0.00 0.00 0.00 39 1014.4
20260507193916 23 158 8.0 16.1 0.00 0.00 0.00 39 1014.4
20260507193555 23 159 9.7 16.1 0.00 0.00 0.00 38 1014.4
20260507193518 23 179 9.7 16.1 0.00 0.00 0.00 40 1014.4
20260507193455 23 144 6.4 16.1 0.00 0.00 0.00 39 1014.4
20260507193443 23 184 8.0 14.5 0.00 0.00 0.00 39 1014.4
20260507193051 23 164 9.7 14.5 0.00 0.00 0.00 38 1014.5
20260507193034 23 185 9.7 14.5 0.00 0.00 0.00 38 1014.5
20260507193009 23 184 9.7 14.5 0.00 0.00 0.00 39 1014.5
20260507192649 23 207 6.4 14.5 0.00 0.00 0.00 39 1014.4
20260507192631 23 130 6.4 14.5 0.00 0.00 0.00 37 1014.5
20260507192619 23 161 3.2 14.5 0.00 0.00 0.00 37 1014.5
20260507192247 23 188 4.8 14.5 0.00 0.00 0.00 34 1014.5
20260507192146 23 186 4.8 14.5 0.00 0.00 0.00 36 1014.5
20260507192046 23 190 4.8 14.5 0.00 0.00 0.00 37 1014.6
20260507192026 23 119 6.4 14.5 0.00 0.00 0.00 37 1014.6
20260507192002 23 159 4.8 14.5 0.00 0.00 0.00 37 1014.6
20260507191642 23 144 4.8 14.5 0.00 0.00 0.00 39 1014.6
20260507191555 23 163 6.4 14.5 0.00 0.00 0.00 37 1014.6
20260507191541 23 202 6.4 14.5 0.00 0.00 0.00 38 1014.6
20260507191518 23 250 6.4 14.5 0.00 0.00 0.00 38 1014.6
20260507191503 22 230 6.4 12.9 0.00 0.00 0.00 38 1014.6
20260507191231 22 132 4.8 12.9 0.00 0.00 0.00 38 1014.6
20260507190949 22 50 6.4 12.9 0.00 0.00 0.00 37 1014.6
20260507190938 22 133 4.8 12.9 0.00 0.00 0.00 39 1014.6
20260507190924 22 115 6.4 12.9 0.00 0.00 0.00 37 1014.6
20260507190334 22 235 8.0 14.5 0.00 0.00 0.00 38 1014.6
20260507190304 22 175 6.4 14.5 0.00 0.00 0.00 39 1014.6
20260507190251 22 182 4.8 14.5 0.00 0.00 0.00 39 1014.6
20260507185931 22 275 4.8 14.5 0.00 0.00 0.00 39 1014.6
20260507185830 22 200 6.4 14.5 0.00 0.00 0.00 38 1014.6
20260507185729 22 195 3.2 14.5 0.00 0.00 0.00 39 1014.6
20260507185629 22 52 1.6 16.1 0.00 0.00 0.00 41 1014.6
20260507185553 22 208 4.8 16.1 0.00 0.00 0.00 39 1014.6
20260507185527 22 65 6.4 16.1 0.00 0.00 0.00 39 1014.6
20260507185517 22 248 3.2 16.1 0.00 0.00 0.00 38 1014.6
20260507185502 22 160 3.2 16.1 0.00 0.00 0.00 40 1014.6
20260507185232 22 250 4.8 16.1 0.00 0.00 0.00 41 1014.7
20260507185219 22 236 6.4 16.1 0.00 0.00 0.00 41 1014.7
20260507184631 22 134 4.8 14.5 0.00 0.00 0.00 41 1014.7
20260507184528 22 210 8.0 14.5 0.00 0.00 0.00 41 1014.7
20260507184429 22 171 9.7 14.5 0.00 0.00 0.00 39 1014.7
20260507184329 22 272 4.8 12.9 0.00 0.00 0.00 41 1014.7
20260507184226 22 269 4.8 12.9 0.00 0.00 0.00 41 1014.7
20260507184126 22 167 6.4 12.9 0.00 0.00 0.00 40 1014.7
20260507184024 22 147 6.4 12.9 0.00 0.00 0.00 41 1014.7
20260507183925 22 161 4.8 8.0 0.00 0.00 0.00 41 1014.7
20260507183823 22 132 3.2 8.0 0.00 0.00 0.00 42 1014.7
20260507183723 22 225 3.2 8.0 0.00 0.00 0.00 43 1014.8
20260507183621 22 197 4.8 16.1 0.00 0.00 0.00 42 1014.7
20260507183521 22 256 4.8 16.1 0.00 0.00 0.00 42 1014.7
20260507183419 22 190 3.2 16.1 0.00 0.00 0.00 42 1014.8
20260507183325 22 207 3.2 16.1 0.00 0.00 0.00 42 1014.8
20260507183219 22 227 1.6 16.1 0.00 0.00 0.00 42 1014.8
20260507183122 22 263 1.6 16.1 0.00 0.00 0.00 42 1014.8
20260507183016 22 216 3.2 16.1 0.00 0.00 0.00 43 1014.9
20260507182917 22 176 4.8 16.1 0.00 0.00 0.00 43 1014.9
20260507182815 22 222 8.0 16.1 0.00 0.00 0.00 42 1014.9
20260507182715 22 218 6.4 16.1 0.00 0.00 0.00 43 1014.8
20260507182636 22 254 3.2 11.3 0.00 0.00 0.00 43 1014.9
20260507182623 22 263 3.2 9.7 0.00 0.00 0.00 43 1014.9
20260507182558 22 123 4.8 9.7 0.00 0.00 0.00 43 1014.8
20260507182547 22 134 6.4 9.7 0.00 0.00 0.00 42 1014.9
20260507182535 22 148 4.8 9.7 0.00 0.00 0.00 43 1014.9
20260507182522 22 284 3.2 9.7 0.00 0.00 0.00 43 1014.8
20260507181710 21 170 4.8 19.3 0.00 0.00 0.00 45 1014.9
20260507181611 21 257 4.8 19.3 0.00 0.00 0.00 45 1014.8
20260507181509 21 171 4.8 19.3 0.00 0.00 0.00 45 1014.8
20260507181406 21 148 1.6 19.3 0.00 0.00 0.00 45 1014.9
20260507181305 21 190 3.2 19.3 0.00 0.00 0.00 44 1014.8
20260507181203 21 178 4.8 19.3 0.00 0.00 0.00 45 1014.8
20260507181104 21 189 8.0 19.3 0.00 0.00 0.00 44 1014.9
20260507181003 21 157 8.0 19.3 0.00 0.00 0.00 44 1014.9
20260507180905 21 177 6.4 19.3 0.00 0.00 0.00 45 1014.9
20260507180801 21 239 3.2 14.5 0.00 0.00 0.00 44 1014.9
20260507180736 21 194 3.2 14.5 0.00 0.00 0.00 45 1014.9
20260507180724 21 161 3.2 14.5 0.00 0.00 0.00 45 1014.9
20260507180418 21 232 4.8 14.5 0.00 0.00 0.00 44 1014.9
20260507180405 21 161 4.8 14.5 0.00 0.00 0.00 45 1014.9
20260507180353 21 252 6.4 14.5 0.00 0.00 0.00 47 1014.9
20260507180001 21 184 4.8 14.5 0.00 0.00 0.00 46 1014.9
20260507175906 21 148 6.4 20.9 0.00 0.00 0.00 47 1014.9
20260507175802 21 169 8.0 20.9 0.00 0.00 0.00 46 1014.9
20260507175702 21 142 9.7 20.9 0.00 0.00 0.00 46 1014.9
20260507175600 21 169 8.0 20.9 0.00 0.00 0.00 46 1015.0
20260507175504 21 151 3.2 20.9 0.00 0.00 0.00 46 1015.0
20260507175401 21 205 6.4 20.9 0.00 0.00 0.00 47 1015.0
20260507175306 21 250 9.7 20.9 0.00 0.00 0.00 46 1015.0
20260507175203 21 262 9.7 20.9 0.00 0.00 0.00 45 1015.0
20260507175102 21 263 6.4 20.9 0.00 0.00 0.00 46 1015.0
20260507174951 21 275 3.2 14.5 0.00 0.00 0.00 46 1015.0
20260507174849 21 246 4.8 11.3 0.00 0.00 0.00 46 1015.0
20260507174749 21 199 6.4 11.3 0.00 0.00 0.00 46 1015.0
20260507174648 21 150 6.4 11.3 0.00 0.00 0.00 46 1014.9
20260507174548 21 162 6.4 11.3 0.00 0.00 0.00 46 1014.9
20260507174450 21 194 3.2 11.3 0.00 0.00 0.00 46 1014.9
20260507174421 21 181 1.6 11.3 0.00 0.00 0.00 46 1015.0
20260507174407 21 116 3.2 11.3 0.00 0.00 0.00 47 1014.9
20260507174044 21 216 4.8 9.7 0.00 0.00 0.00 47 1015.0
20260507173948 21 282 4.8 9.7 0.00 0.00 0.00 47 1014.9
20260507173844 21 174 4.8 9.7 0.00 0.00 0.00 46 1015.0
20260507173813 21 208 3.2 9.7 0.00 0.00 0.00 46 1014.9
20260507173801 21 236 4.8 9.7 0.00 0.00 0.00 46 1015.0
20260507173442 21 259 3.2 12.9 0.00 0.00 0.00 46 1014.9
20260507173341 21 250 3.2 12.9 0.00 0.00 0.00 45 1014.9
20260507173252 21 225 3.2 12.9 0.00 0.00 0.00 45 1014.9
20260507173236 21 67 3.2 12.9 0.00 0.00 0.00 46 1014.9
20260507173224 21 269 4.8 12.9 0.00 0.00 0.00 45 1014.9
20260507173213 21 266 4.8 12.9 0.00 0.00 0.00 44 1015.0
20260507173117 21 298 6.4 12.9 0.00 0.00 0.00 44 1014.9
20260507172535 21 257 3.2 11.3 0.00 0.00 0.00 44 1015.0
20260507172516 21 11 1.6 11.3 0.00 0.00 0.00 43 1015.0
20260507172454 21 283 3.2 12.9 0.00 0.00 0.00 44 1014.9
20260507172133 20 265 3.2 12.9 0.00 0.00 0.00 43 1014.9
20260507172029 20 337 4.8 12.9 0.00 0.00 0.00 42 1014.9
20260507171934 21 47 3.2 12.9 0.00 0.00 0.00 41 1014.9
20260507171905 21 0 3.2 12.9 0.00 0.00 0.00 43 1015.0
20260507171851 21 348 3.2 12.9 0.00 0.00 0.00 43 1014.9
20260507171529 21 289 6.4 12.9 0.00 0.00 0.00 40 1015.0
20260507171429 21 265 8.0 12.9 0.00 0.00 0.00 42 1015.0
20260507171345 21 308 6.4 12.9 0.00 0.00 0.00 42 1015.0
20260507171327 21 248 3.2 12.9 0.00 0.00 0.00 42 1015.0
20260507171316 21 267 1.6 4.8 0.00 0.00 0.00 46 1015.0
20260507171304 21 280 1.6 4.8 0.00 0.00 0.00 44 1014.9
20260507171020 20 140 3.2 4.8 0.00 0.00 0.00 43 1014.9
20260507170748 20 277 3.2 4.8 0.00 0.00 0.00 45 1014.9
20260507170428 20 233 1.6 4.8 0.00 0.00 0.00 45 1015.0
20260507170330 20 140 1.6 9.7 0.00 0.00 0.00 44 1015.0
20260507170215 20 109 1.6 9.7 0.00 0.00 0.00 45 1015.0
20260507170110 20 51 1.6 9.7 0.00 0.00 0.00 45 1015.0
20260507170033 20 250 3.2 9.7 0.00 0.00 0.00 46 1015.0
20260507165910 20 347 3.2 9.7 0.00 0.00 0.00 45 1015.0
20260507165806 20 0 3.2 9.7 0.00 0.00 0.00 44 1015.1
20260507165705 20 338 3.2 9.7 0.00 0.00 0.00 45 1015.1
20260507165605 20 78 4.8 9.7 0.00 0.00 0.00 45 1015.0
20260507165501 20 296 4.8 9.7 0.00 0.00 0.00 45 1015.0
20260507165410 20 293 3.2 9.7 0.00 0.00 0.00 50 1015.0
20260507165306 20 311 3.2 8.0 0.00 0.00 0.00 50 1015.0
20260507165237 20 284 1.6 8.0 0.00 0.00 0.00 48 1015.0
20260507165222 20 232 3.2 8.0 0.00 0.00 0.00 51 1015.0
20260507164908 20 232 1.6 8.0 0.00 0.00 0.00 53 1015.1
20260507164803 20 275 3.2 8.0 0.00 0.00 0.00 52 1015.0
20260507164701 20 244 3.2 8.0 0.00 0.00 0.00 53 1015.0
20260507164605 20 225 1.6 8.0 0.00 0.00 0.00 53 1015.1
20260507164500 20 180 1.6 12.9 0.00 0.00 0.00 53 1015.0
20260507164406 20 239 1.6 12.9 0.00 0.00 0.00 53 1015.0
20260507164301 20 221 3.2 12.9 0.00 0.00 0.00 54 1015.0
20260507164216 20 270 4.8 12.9 0.00 0.00 0.00 53 1015.0
20260507164159 20 188 3.2 12.9 0.00 0.00 0.00 54 1015.0
20260507164147 20 196 3.2 12.9 0.00 0.00 0.00 54 1015.0
20260507164136 20 242 3.2 12.9 0.00 0.00 0.00 55 1015.0
20260507164110 19 244 4.8 12.9 0.00 0.00 0.00 55 1015.0
20260507164059 19 146 6.4 12.9 0.00 0.00 0.00 54 1015.0
20260507164047 19 187 8.0 14.5 0.00 0.00 0.00 56 1015.0
20260507164035 19 248 8.0 14.5 0.00 0.00 0.00 54 1015.0
20260507163751 19 150 4.8 16.1 0.00 0.00 0.00 54 1015.0
20260507163259 19 240 6.4 16.1 0.00 0.00 0.00 53 1015.0
20260507163018 19 216 8.0 16.1 0.00 0.00 0.00 53 1015.0
20260507162936 19 160 6.4 16.1 0.00 0.00 0.00 54 1015.1
20260507162706 19 246 6.4 16.1 0.00 0.00 0.00 54 1015.0
20260507162423 19 254 6.4 14.5 0.00 0.00 0.00 55 1015.0
20260507162102 19 252 4.8 14.5 0.00 0.00 0.00 56 1015.1
20260507162005 18 260 4.8 14.5 0.00 0.00 0.00 55 1015.1
20260507161933 18 244 6.4 14.5 0.00 0.00 0.00 56 1015.1
20260507161908 18 246 8.0 14.5 0.00 0.00 0.00 56 1015.0
20260507161857 18 331 6.4 14.5 0.00 0.00 0.00 55 1015.0
20260507161625 18 269 6.4 14.5 0.00 0.00 0.00 53 1015.0
20260507161301 18 285 6.4 14.5 0.00 0.00 0.00 52 1015.0
20260507161238 18 267 6.4 14.5 0.00 0.00 0.00 50 1015.0
20260507161223 18 259 4.8 14.5 0.00 0.00 0.00 54 1015.0
20260507160901 18 186 3.2 14.5 0.00 0.00 0.00 53 1014.9
20260507160801 18 250 3.2 14.5 0.00 0.00 0.00 53 1015.0
20260507160701 18 248 6.4 14.5 0.00 0.00 0.00 54 1015.0
20260507160636 18 121 6.4 14.5 0.00 0.00 0.00 54 1015.0
20260507160625 18 286 6.4 14.5 0.00 0.00 0.00 53 1015.0
20260507160301 18 229 4.8 11.3 0.00 0.00 0.00 55 1015.0
20260507160203 18 257 3.2 11.3 0.00 0.00 0.00 55 1015.0
20260507160001 18 258 3.2 9.7 0.00 0.00 0.00 56 1015.0
20260507155927 18 248 3.2 9.7 0.00 0.00 0.00 57 1015.0
20260507155900 18 310 3.2 9.7 0.00 0.00 0.00 56 1015.0
20260507155849 18 221 4.8 9.7 0.00 0.00 0.00 57 1015.0
20260507155544 18 262 3.2 9.7 0.00 0.00 0.00 58 1015.0
20260507155533 18 135 3.2 11.3 0.00 0.00 0.00 58 1015.1
20260507155201 18 167 3.2 12.9 0.00 0.00 0.00 60 1015.0
20260507155100 18 167 3.2 12.9 0.00 0.00 0.00 60 1015.0
20260507155039 18 247 3.2 16.1 0.00 0.00 0.00 58 1015.0
20260507155028 18 263 4.8 17.7 0.00 0.00 0.00 59 1015.0
20260507154652 17 287 3.2 17.7 0.00 0.00 0.00 62 1014.9
20260507154552 17 257 6.4 17.7 0.00 0.00 0.00 62 1014.9
20260507154452 17 223 4.8 17.7 0.00 0.00 0.00 60 1014.9
20260507154354 17 165 3.2 17.7 0.00 0.00 0.00 61 1014.9
20260507154323 17 245 4.8 17.7 0.00 0.00 0.00 62 1014.9
20260507154309 17 164 9.7 17.7 0.00 0.00 0.00 62 1014.9
20260507153947 17 171 8.0 17.7 0.00 0.00 0.00 59 1015.0
20260507153911 17 178 4.8 14.5 0.00 0.00 0.00 61 1015.0
20260507153843 17 207 4.8 12.9 0.00 0.00 0.00 61 1014.9
20260507153832 17 234 3.2 12.9 0.00 0.00 0.00 62 1015.0
20260507153818 17 209 4.8 12.9 0.00 0.00 0.00 61 1014.9
20260507153808 17 189 4.8 12.9 0.00 0.00 0.00 60 1015.0
20260507153526 17 159 3.2 11.3 0.00 0.00 0.00 62 1015.0
20260507153510 17 212 3.2 11.3 0.00 0.00 0.00 61 1015.0
20260507153241 17 209 3.2 8.0 0.00 0.00 0.00 63 1015.0
20260507153231 17 185 4.8 8.0 0.00 0.00 0.00 63 1015.0
20260507152946 17 89 3.2 9.7 0.00 0.00 0.00 63 1015.0
20260507152337 17 196 1.6 9.7 0.00 0.00 0.00 63 1015.0
20260507152237 17 101 3.2 14.5 0.00 0.00 0.00 63 1015.0
20260507152135 17 196 3.2 14.5 0.00 0.00 0.00 63 1015.0
20260507152035 17 178 3.2 14.5 0.00 0.00 0.00 63 1015.0
20260507152016 17 182 4.8 14.5 0.00 0.00 0.00 63 1015.0
20260507152006 17 181 3.2 14.5 0.00 0.00 0.00 62 1015.0
20260507151632 17 274 3.2 14.5 0.00 0.00 0.00 64 1014.9
20260507151532 17 223 3.2 14.5 0.00 0.00 0.00 63 1014.9
20260507151431 17 164 4.8 14.5 0.00 0.00 0.00 63 1014.9
20260507151334 17 228 3.2 14.5 0.00 0.00 0.00 63 1014.9
20260507151233 17 260 1.6 11.3 0.00 0.00 0.00 64 1014.9
20260507151130 16 221 3.2 11.3 0.00 0.00 0.00 64 1014.9
20260507151106 16 181 4.8 11.3 0.00 0.00 0.00 64 1014.9
20260507151054 16 162 4.8 11.3 0.00 0.00 0.00 64 1014.9
20260507150729 16 211 4.8 9.7 0.00 0.00 0.00 65 1014.8
20260507150632 16 188 4.8 9.7 0.00 0.00 0.00 64 1014.8
20260507150530 16 146 3.2 9.7 0.00 0.00 0.00 65 1014.8
20260507150434 16 152 3.2 9.7 0.00 0.00 0.00 65 1014.7
20260507150418 16 258 4.8 9.7 0.00 0.00 0.00 64 1014.7
20260507150353 16 210 4.8 9.7 0.00 0.00 0.00 63 1014.7
20260507150030 16 209 3.2 9.7 0.00 0.00 0.00 64 1014.7
20260507145929 16 229 3.2 9.7 0.00 0.00 0.00 64 1014.7
20260507145854 16 211 1.6 9.7 0.00 0.00 0.00 65 1014.8
20260507145828 16 187 3.2 9.7 0.00 0.00 0.00 64 1014.8
20260507145817 16 169 4.8 9.7 0.00 0.00 0.00 64 1014.8
20260507145542 16 274 4.8 9.7 0.00 0.00 0.00 63 1014.8
20260507145530 16 155 3.2 9.7 0.00 0.00 0.00 63 1014.8
20260507145127 16 213 3.2 9.7 0.00 0.00 0.00 64 1014.8
20260507145027 16 225 3.2 9.7 0.00 0.00 0.00 65 1014.8
20260507144927 16 220 3.2 9.7 0.00 0.00 0.00 65 1014.8
20260507144826 16 253 3.2 9.7 0.00 0.00 0.00 65 1014.8
20260507144725 16 217 3.2 9.7 0.00 0.00 0.00 64 1014.8
20260507144624 16 259 3.2 9.7 0.00 0.00 0.00 65 1014.8
20260507144524 16 170 3.2 9.7 0.00 0.00 0.00 65 1014.8
20260507144423 16 257 3.2 9.7 0.00 0.00 0.00 65 1014.8
20260507144323 16 195 3.2 9.7 0.00 0.00 0.00 65 1014.9
20260507144222 16 182 3.2 9.7 0.00 0.00 0.00 65 1014.8
20260507144122 16 218 3.2 9.7 0.00 0.00 0.00 65 1014.7
20260507144022 15 209 4.8 9.7 0.00 0.00 0.00 66 1014.8
20260507143921 15 173 3.2 9.7 0.00 0.00 0.00 65 1014.7
20260507143823 15 164 3.2 9.7 0.00 0.00 0.00 66 1014.7
20260507143719 15 261 3.2 9.7 0.00 0.00 0.00 67 1014.8
20260507143619 15 209 3.2 9.7 0.00 0.00 0.00 67 1014.8
20260507143518 15 236 3.2 9.7 0.00 0.00 0.00 67 1014.8
20260507143418 15 184 3.2 9.7 0.00 0.00 0.00 67 1014.8
20260507143321 15 236 3.2 9.7 0.00 0.00 0.00 67 1014.8
20260507143213 15 178 3.2 9.7 0.00 0.00 0.00 67 1014.8
20260507143110 15 217 3.2 9.7 0.00 0.00 0.00 67 1014.8
20260507143011 15 228 1.6 9.7 0.00 0.00 0.00 68 1014.8
20260507142909 15 192 1.6 9.7 0.00 0.00 0.00 69 1014.7
20260507142817 15 190 3.2 9.7 0.00 0.00 0.00 68 1014.8
20260507142707 15 182 3.2 9.7 0.00 0.00 0.00 69 1014.7
20260507142606 15 246 3.2 9.7 0.00 0.00 0.00 69 1014.7
20260507142505 15 189 4.8 14.5 0.00 0.00 0.00 68 1014.7
20260507142408 15 166 4.8 14.5 0.00 0.00 0.00 68 1014.7
20260507142313 15 190 3.2 14.5 0.00 0.00 0.00 69 1014.7
20260507142201 15 188 3.2 14.5 0.00 0.00 0.00 69 1014.7
20260507142101 15 226 3.2 14.5 0.00 0.00 0.00 69 1014.7
20260507142042 15 205 3.2 14.5 0.00 0.00 0.00 69 1014.7
20260507142031 15 180 3.2 14.5 0.00 0.00 0.00 69 1014.7
20260507141732 15 189 6.4 14.5 0.00 0.00 0.00 69 1014.7
20260507141724 15 209 3.2 14.5 0.00 0.00 0.00 69 1014.7
20260507141443 15 237 3.2 8.0 0.00 0.00 0.00 70 1014.7
20260507141420 15 214 3.2 9.7 0.00 0.00 0.00 70 1014.7
20260507141409 15 173 3.2 9.7 0.00 0.00 0.00 70 1014.6
20260507141354 15 216 1.6 9.7 0.00 0.00 0.00 70 1014.6
20260507141343 15 205 1.6 9.7 0.00 0.00 0.00 70 1014.6
20260507141102 14 164 3.2 9.7 0.00 0.00 0.00 71 1014.6
20260507141049 14 289 3.2 9.7 0.00 0.00 0.00 71 1014.6
20260507140559 14 277 3.2 9.7 0.00 0.00 0.00 71 1014.7
20260507140310 14 263 3.2 6.4 0.00 0.00 0.00 72 1014.6
20260507135949 14 258 3.2 6.4 0.00 0.00 0.00 72 1014.6
20260507135848 14 259 1.6 6.4 0.00 0.00 0.00 72 1014.5
20260507135748 14 202 1.6 6.4 0.00 0.00 0.00 72 1014.5
20260507135647 14 263 1.6 6.4 0.00 0.00 0.00 72 1014.5
20260507135618 14 202 3.2 6.4 0.00 0.00 0.00 72 1014.5
20260507135605 14 236 3.2 6.4 0.00 0.00 0.00 73 1014.5
20260507135245 14 267 1.6 6.4 0.00 0.00 0.00 73 1014.5
20260507135143 14 217 1.6 6.4 0.00 0.00 0.00 73 1014.6
20260507135046 14 236 1.6 6.4 0.00 0.00 0.00 73 1014.6
20260507135033 14 259 1.6 6.4 0.00 0.00 0.00 73 1014.5
20260507135019 14 212 1.6 6.4 0.00 0.00 0.00 73 1014.5
20260507134957 14 268 3.2 6.4 0.00 0.00 0.00 73 1014.5
20260507134946 14 216 3.2 6.4 0.00 0.00 0.00 73 1014.4
20260507134935 13 196 3.2 6.4 0.00 0.00 0.00 73 1014.4
20260507134923 13 165 3.2 6.4 0.00 0.00 0.00 73 1014.4
20260507134912 13 191 3.2 9.7 0.00 0.00 0.00 73 1014.3
20260507134848 13 223 3.2 9.7 0.00 0.00 0.00 73 1014.3
20260507134613 13 250 1.6 9.7 0.00 0.00 0.00 74 1014.3
20260507134602 13 229 1.6 9.7 0.00 0.00 0.00 74 1014.3
20260507134101 13 122 3.2 11.3 0.00 0.00 0.00 74 1014.3
20260507133610 13 243 1.6 11.3 0.00 0.00 0.00 74 1014.2
20260507133327 13 155 3.2 11.3 0.00 0.00 0.00 74 1014.2
20260507133313 13 287 3.2 11.3 0.00 0.00 0.00 75 1014.1
20260507133301 13 235 3.2 11.3 0.00 0.00 0.00 74 1014.1
20260507133018 13 263 1.6 8.0 0.00 0.00 0.00 75 1014.1
20260507132747 13 234 3.2 9.7 0.00 0.00 0.00 75 1014.1
20260507132733 13 181 3.2 9.7 0.00 0.00 0.00 75 1014.0
20260507132452 13 229 3.2 9.7 0.00 0.00 0.00 75 1014.0
20260507132439 13 242 3.2 9.7 0.00 0.00 0.00 75 1014.0
20260507131828 13 242 3.2 9.7 0.00 0.00 0.00 75 1014.0
20260507131729 13 196 3.2 9.7 0.00 0.00 0.00 75 1014.0
20260507131629 13 157 3.2 9.7 0.00 0.00 0.00 75 1014.0
20260507131529 13 178 3.2 8.0 0.00 0.00 0.00 75 1014.0
20260507131428 13 154 3.2 8.0 0.00 0.00 0.00 75 1014.0
20260507131329 13 202 4.8 8.0 0.00 0.00 0.00 76 1014.0
20260507131229 13 203 4.8 8.0 0.00 0.00 0.00 75 1013.9
20260507131129 13 196 4.8 8.0 0.00 0.00 0.00 76 1014.0
20260507131028 13 174 3.2 11.3 0.00 0.00 0.00 75 1014.0
20260507130928 13 215 3.2 11.3 0.00 0.00 0.00 76 1013.9
20260507130828 13 241 3.2 11.3 0.00 0.00 0.00 76 1013.9
20260507130730 13 196 3.2 11.3 0.00 0.00 0.00 76 1013.9
20260507130629 13 177 3.2 11.3 0.00 0.00 0.00 76 1013.9
20260507130531 13 167 3.2 11.3 0.00 0.00 0.00 76 1013.9
20260507130429 13 139 1.6 11.3 0.00 0.00 0.00 76 1013.9
20260507130329 13 248 1.6 11.3 0.00 0.00 0.00 76 1013.8
20260507130302 13 243 3.2 11.3 0.00 0.00 0.00 76 1013.9
20260507130251 13 236 4.8 11.3 0.00 0.00 0.00 76 1013.8
20260507125932 13 156 3.2 9.7 0.00 0.00 0.00 75 1013.9
20260507125832 13 206 3.2 9.7 0.00 0.00 0.00 76 1013.9
20260507125804 13 212 3.2 9.7 0.00 0.00 0.00 76 1013.9
20260507125750 13 221 3.2 9.7 0.00 0.00 0.00 75 1014.0
20260507125512 13 175 3.2 9.7 0.00 0.00 0.00 76 1014.0
20260507125501 13 196 3.2 9.7 0.00 0.00 0.00 76 1014.0
20260507125146 13 196 4.8 9.7 0.00 0.00 0.00 75 1014.0
20260507125130 13 146 3.2 9.7 0.00 0.00 0.00 75 1014.0
20260507125118 13 269 3.2 8.0 0.00 0.00 0.00 75 1014.0
20260507124728 13 204 1.6 8.0 0.00 0.00 0.00 75 1013.9
20260507124630 13 160 1.6 8.0 0.00 0.00 0.00 75 1013.9
20260507124529 13 220 3.2 8.0 0.00 0.00 0.00 75 1013.9
20260507124427 13 204 1.6 6.4 0.00 0.00 0.00 75 1013.9
20260507124326 13 180 3.2 6.4 0.00 0.00 0.00 75 1014.0
20260507124226 13 183 3.2 6.4 0.00 0.00 0.00 75 1013.9
20260507124128 13 280 3.2 6.4 0.00 0.00 0.00 75 1013.9
20260507124026 13 203 1.6 6.4 0.00 0.00 0.00 75 1013.9
20260507123927 13 201 1.6 6.4 0.00 0.00 0.00 75 1013.9
20260507123824 13 201 3.2 6.4 0.00 0.00 0.00 75 1013.8
20260507123722 13 217 1.6 6.4 0.00 0.00 0.00 75 1013.9
20260507123622 13 163 1.6 6.4 0.00 0.00 0.00 75 1013.9
20260507123522 13 279 1.6 6.4 0.00 0.00 0.00 75 1013.9
20260507123418 13 305 1.6 6.4 0.00 0.00 0.00 75 1013.8
20260507123316 13 265 1.6 6.4 0.00 0.00 0.00 75 1013.9
20260507123213 13 268 3.2 6.4 0.00 0.00 0.00 75 1013.8
20260507123115 13 267 1.6 6.4 0.00 0.00 0.00 75 1013.8
20260507123014 13 146 1.6 8.0 0.00 0.00 0.00 75 1013.8
20260507122912 13 196 3.2 8.0 0.00 0.00 0.00 75 1013.7
20260507122811 13 197 3.2 8.0 0.00 0.00 0.00 75 1013.7
20260507122739 13 192 3.2 9.7 0.00 0.00 0.00 75 1013.7
20260507122728 13 199 3.2 11.3 0.00 0.00 0.00 75 1013.6
20260507122408 13 200 3.2 12.9 0.00 0.00 0.00 75 1013.6
20260507122308 13 240 3.2 12.9 0.00 0.00 0.00 75 1013.6
20260507122207 13 229 3.2 14.5 0.00 0.00 0.00 75 1013.6
20260507122106 13 124 3.2 14.5 0.00 0.00 0.00 75 1013.6
20260507122005 13 226 3.2 14.5 0.00 0.00 0.00 75 1013.6
20260507121906 13 179 4.8 14.5 0.00 0.00 0.00 75 1013.6
20260507121850 13 188 4.8 16.1 0.00 0.00 0.00 74 1013.6
20260507121827 13 257 6.4 16.1 0.00 0.00 0.00 74 1013.6
20260507121504 13 219 4.8 16.1 0.00 0.00 0.00 74 1013.5
20260507121405 13 214 6.4 16.1 0.00 0.00 0.00 74 1013.5
20260507121303 13 192 6.4 16.1 0.00 0.00 0.00 74 1013.6
20260507121201 13 222 6.4 16.1 0.00 0.00 0.00 74 1013.5
20260507121103 13 243 6.4 16.1 0.00 0.00 0.00 74 1013.6
20260507121001 13 165 8.0 16.1 0.00 0.00 0.00 74 1013.5
20260507120902 13 218 4.8 16.1 0.00 0.00 0.00 74 1013.6
20260507120805 13 229 4.8 12.9 0.00 0.00 0.00 74 1013.6
20260507120730 13 206 6.4 12.9 0.00 0.00 0.00 74 1013.6
20260507120718 13 205 4.8 12.9 0.00 0.00 0.00 74 1013.6
20260507120707 13 235 3.2 12.9 0.00 0.00 0.00 74 1013.5
20260507120434 13 198 4.8 12.9 0.00 0.00 0.00 73 1013.6
20260507120004 13 209 4.8 12.9 0.00 0.00 0.00 73 1013.6
20260507115902 13 236 3.2 12.9 0.00 0.00 0.00 73 1013.7
20260507115803 13 180 3.2 12.9 0.00 0.00 0.00 73 1013.6
20260507115702 14 161 3.2 11.3 0.00 0.00 0.00 72 1013.7
20260507115601 14 262 4.8 12.9 0.00 0.00 0.00 72 1013.7
20260507115502 14 175 4.8 12.9 0.00 0.00 0.00 72 1013.7
20260507115406 14 230 3.2 12.9 0.00 0.00 0.00 72 1013.7
20260507115351 14 180 4.8 12.9 0.00 0.00 0.00 72 1013.7
20260507115328 14 252 4.8 12.9 0.00 0.00 0.00 72 1013.7
20260507115315 14 238 3.2 12.9 0.00 0.00 0.00 72 1013.7
20260507115300 14 182 4.8 12.9 0.00 0.00 0.00 72 1013.6
20260507115250 14 188 6.4 12.9 0.00 0.00 0.00 72 1013.7
20260507114716 14 218 3.2 11.3 0.00 0.00 0.00 71 1013.6
20260507114705 14 196 6.4 11.3 0.00 0.00 0.00 71 1013.6
20260507114434 14 147 3.2 11.3 0.00 0.00 0.00 71 1013.6
20260507114103 14 217 3.2 12.9 0.00 0.00 0.00 71 1013.7
20260507114003 14 144 3.2 12.9 0.00 0.00 0.00 71 1013.6
20260507113948 14 183 3.2 12.9 0.00 0.00 0.00 71 1013.6
20260507113936 14 205 3.2 12.9 0.00 0.00 0.00 71 1013.6
20260507113601 14 174 4.8 12.9 0.00 0.00 0.00 71 1013.6
20260507113505 14 155 4.8 12.9 0.00 0.00 0.00 71 1013.6
20260507113401 14 209 4.8 14.5 0.00 0.00 0.00 71 1013.6
20260507113304 14 137 4.8 14.5 0.00 0.00 0.00 71 1013.6
20260507113201 14 215 4.8 14.5 0.00 0.00 0.00 71 1013.6
20260507113104 14 178 4.8 14.5 0.00 0.00 0.00 71 1013.6
20260507113001 14 254 4.8 14.5 0.00 0.00 0.00 71 1013.6
20260507112905 14 228 3.2 14.5 0.00 0.00 0.00 71 1013.6
20260507112801 14 221 3.2 14.5 0.00 0.00 0.00 71 1013.7
20260507112703 14 258 6.4 14.5 0.00 0.00 0.00 71 1013.6
20260507112601 14 199 4.8 14.5 0.00 0.00 0.00 70 1013.7
20260507112503 14 161 3.2 14.5 0.00 0.00 0.00 70 1013.7
20260507112401 14 177 4.8 12.9 0.00 0.00 0.00 70 1013.7
20260507112310 14 191 4.8 12.9 0.00 0.00 0.00 70 1013.7
20260507112242 14 225 4.8 12.9 0.00 0.00 0.00 70 1013.7
20260507112231 14 202 3.2 12.9 0.00 0.00 0.00 70 1013.6
20260507112218 14 157 3.2 12.9 0.00 0.00 0.00 70 1013.7
20260507112206 14 177 3.2 12.9 0.00 0.00 0.00 70 1013.7
20260507111936 14 163 3.2 12.9 0.00 0.00 0.00 70 1013.6
20260507111841 14 279 1.6 12.9 0.00 0.00 0.00 69 1013.6
20260507111303 14 254 3.2 14.5 0.00 0.00 0.00 69 1013.6
20260507111216 14 254 4.8 14.5 0.00 0.00 0.00 69 1013.6
20260507111129 14 185 4.8 14.5 0.00 0.00 0.00 69 1013.6
20260507111115 14 247 4.8 14.5 0.00 0.00 0.00 69 1013.7
20260507111104 14 180 3.2 14.5 0.00 0.00 0.00 69 1013.6
20260507110833 14 225 4.8 14.5 0.00 0.00 0.00 69 1013.7
20260507110502 14 146 4.8 14.5 0.00 0.00 0.00 69 1013.7
20260507110435 14 180 4.8 9.7 0.00 0.00 0.00 69 1013.7
20260507110422 14 192 4.8 19.3 0.00 0.00 0.00 69 1013.7
20260507110410 14 239 4.8 19.3 0.00 0.00 0.00 69 1013.7
20260507110344 14 200 3.2 19.3 0.00 0.00 0.00 69 1013.6
20260507105802 14 244 3.2 19.3 0.00 0.00 0.00 70 1013.6
20260507105713 14 167 3.2 19.3 0.00 0.00 0.00 70 1013.6
20260507105623 14 234 4.8 19.3 0.00 0.00 0.00 70 1013.6
20260507105537 14 192 4.8 19.3 0.00 0.00 0.00 70 1013.7
20260507105523 14 223 1.6 19.3 0.00 0.00 0.00 70 1013.7
20260507105207 14 215 0.0 9.7 0.00 0.00 0.00 70 1013.7
20260507105103 14 234 0.0 9.7 0.00 0.00 0.00 70 1013.6
20260507105029 14 69 0.0 9.7 0.00 0.00 0.00 70 1013.7
20260507105020 14 196 1.6 9.7 0.00 0.00 0.00 70 1013.7
20260507104705 14 196 4.8 9.7 0.00 0.00 0.00 70 1013.7
20260507104601 14 156 1.6 9.7 0.00 0.00 0.00 70 1013.7
20260507104506 14 228 3.2 9.7 0.00 0.00 0.00 70 1013.7
20260507104401 14 137 3.2 9.7 0.00 0.00 0.00 70 1013.7
20260507104302 14 132 3.2 9.7 0.00 0.00 0.00 70 1013.7
20260507104206 14 234 1.6 9.7 0.00 0.00 0.00 70 1013.7
20260507104136 14 150 0.0 9.7 0.00 0.00 0.00 70 1013.7
20260507104124 15 294 0.0 9.7 0.00 0.00 0.00 70 1013.7
20260507103846 15 224 3.2 9.7 0.00 0.00 0.00 70 1013.7
20260507103833 15 178 3.2 9.7 0.00 0.00 0.00 70 1013.7
20260507103502 15 191 1.6 8.0 0.00 0.00 0.00 70 1013.7
20260507103403 14 161 3.2 8.0 0.00 0.00 0.00 71 1013.7
20260507103302 14 250 3.2 8.0 0.00 0.00 0.00 71 1013.7
20260507103216 14 216 3.2 8.0 0.00 0.00 0.00 71 1013.7
20260507103148 14 202 3.2 8.0 0.00 0.00 0.00 71 1013.7
20260507103134 14 188 3.2 12.9 0.00 0.00 0.00 71 1013.6
20260507103123 14 179 3.2 12.9 0.00 0.00 0.00 71 1013.7
20260507103111 14 237 3.2 12.9 0.00 0.00 0.00 71 1013.6
20260507103100 14 267 3.2 12.9 0.00 0.00 0.00 71 1013.5
20260507103036 14 192 3.2 12.9 0.00 0.00 0.00 71 1013.6
20260507102803 14 190 4.8 12.9 0.00 0.00 0.00 72 1013.6
20260507102753 14 213 6.4 12.9 0.00 0.00 0.00 72 1013.5
20260507102509 14 228 3.2 12.9 0.00 0.00 0.00 72 1013.5
20260507102018 14 166 1.6 6.4 0.00 0.00 0.00 71 1013.6
20260507102006 14 233 0.0 6.4 0.00 0.00 0.00 71 1013.6
20260507101940 14 219 0.0 4.8 0.00 0.00 0.00 71 1013.6
20260507101422 14 203 1.6 11.3 0.00 0.00 0.00 71 1013.6
20260507101103 14 181 0.0 11.3 0.00 0.00 0.00 71 1013.6
20260507101001 14 279 0.0 11.3 0.00 0.00 0.00 71 1013.5
20260507100937 15 193 1.6 11.3 0.00 0.00 0.00 71 1013.5
20260507100926 14 236 3.2 11.3 0.00 0.00 0.00 71 1013.6
20260507100638 14 209 3.2 11.3 0.00 0.00 0.00 71 1013.6
20260507100625 14 261 1.6 9.7 0.00 0.00 0.00 70 1013.5
20260507100303 14 247 3.2 9.7 0.00 0.00 0.00 70 1013.5
20260507100203 15 248 3.2 9.7 0.00 0.00 0.00 70 1013.5
20260507100015 14 170 1.6 6.4 0.00 0.00 0.00 70 1013.4
20260507095958 14 248 1.6 9.7 0.00 0.00 0.00 70 1013.5
20260507095948 15 237 3.2 9.7 0.00 0.00 0.00 70 1013.5
20260507095936 15 154 1.6 9.7 0.00 0.00 0.00 70 1013.6
20260507095912 15 188 1.6 9.7 0.00 0.00 0.00 70 1013.6
20260507095640 15 307 1.6 9.7 0.00 0.00 0.00 70 1013.4
20260507095409 15 267 3.2 9.7 0.00 0.00 0.00 69 1013.4
20260507095343 15 155 1.6 9.7 0.00 0.00 0.00 69 1013.4
20260507095330 15 258 3.2 9.7 0.00 0.00 0.00 69 1013.4
20260507094841 15 152 4.8 11.3 0.00 0.00 0.00 69 1013.3
20260507094502 15 186 1.6 11.3 0.00 0.00 0.00 69 1013.4
20260507094400 15 260 4.8 17.7 0.00 0.00 0.00 69 1013.3
20260507094303 15 209 3.2 17.7 0.00 0.00 0.00 69 1013.3
20260507094201 15 150 1.6 17.7 0.00 0.00 0.00 69 1013.3
20260507094103 15 237 3.2 17.7 0.00 0.00 0.00 69 1013.3
20260507094003 15 257 3.2 17.7 0.00 0.00 0.00 69 1013.3
20260507093903 15 148 3.2 17.7 0.00 0.00 0.00 70 1013.3
20260507093845 15 266 3.2 17.7 0.00 0.00 0.00 70 1013.3
20260507093834 15 252 4.8 17.7 0.00 0.00 0.00 70 1013.2
20260507093502 15 244 3.2 17.7 0.00 0.00 0.00 70 1013.3
20260507093401 15 215 4.8 16.1 0.00 0.00 0.00 70 1013.2
20260507093302 15 194 4.8 16.1 0.00 0.00 0.00 70 1013.3
20260507093202 15 180 3.2 16.1 0.00 0.00 0.00 70 1013.3
20260507093103 15 301 3.2 11.3 0.00 0.00 0.00 70 1013.3
20260507093001 15 270 3.2 11.3 0.00 0.00 0.00 70 1013.4
20260507092903 15 212 3.2 11.3 0.00 0.00 0.00 69 1013.4
20260507092844 15 234 1.6 11.3 0.00 0.00 0.00 69 1013.4
20260507092833 15 268 3.2 11.3 0.00 0.00 0.00 69 1013.4
20260507092502 15 130 3.2 11.3 0.00 0.00 0.00 69 1013.4
20260507092400 15 262 3.2 11.3 0.00 0.00 0.00 69 1013.4
20260507092306 15 284 4.8 11.3 0.00 0.00 0.00 69 1013.4
20260507092204 15 178 6.4 11.3 0.00 0.00 0.00 69 1013.5
20260507092104 15 271 4.8 11.3 0.00 0.00 0.00 69 1013.4
20260507092001 15 268 4.8 11.3 0.00 0.00 0.00 69 1013.4
20260507091902 15 267 4.8 11.3 0.00 0.00 0.00 69 1013.5
20260507091802 15 266 4.8 11.3 0.00 0.00 0.00 69 1013.4
20260507091702 15 265 1.6 11.3 0.00 0.00 0.00 69 1013.4
20260507091614 15 182 0.0 9.7 0.00 0.00 0.00 69 1013.5
20260507091601 15 244 3.2 9.7 0.00 0.00 0.00 69 1013.5
20260507091550 15 217 3.2 9.7 0.00 0.00 0.00 69 1013.4
20260507091203 15 230 3.2 12.9 0.00 0.00 0.00 68 1013.4
20260507091103 15 184 4.8 12.9 0.00 0.00 0.00 68 1013.4
20260507091001 15 217 3.2 12.9 0.00 0.00 0.00 68 1013.5
20260507090902 15 251 3.2 16.1 0.00 0.00 0.00 68 1013.5
20260507090802 15 238 3.2 16.1 0.00 0.00 0.00 67 1013.5
20260507090703 15 244 4.8 16.1 0.00 0.00 0.00 67 1013.6
20260507090602 15 218 4.8 16.1 0.00 0.00 0.00 67 1013.5
20260507090503 15 250 4.8 16.1 0.00 0.00 0.00 67 1013.4
20260507090402 15 232 4.8 16.1 0.00 0.00 0.00 67 1013.5
20260507090302 15 238 4.8 16.1 0.00 0.00 0.00 67 1013.5
20260507090201 15 193 6.4 16.1 0.00 0.00 0.00 67 1013.5
20260507090004 15 208 6.4 16.1 0.00 0.00 0.00 67 1013.5
20260507085903 15 258 6.4 16.1 0.00 0.00 0.00 67 1013.5
20260507085800 15 254 4.8 16.1 0.00 0.00 0.00 67 1013.4
20260507085702 15 262 4.8 16.1 0.00 0.00 0.00 67 1013.5
20260507085600 15 282 6.4 16.1 0.00 0.00 0.00 67 1013.5
20260507085502 15 231 6.4 16.1 0.00 0.00 0.00 67 1013.5
20260507085400 15 273 6.4 16.1 0.00 0.00 0.00 67 1013.5
20260507085301 15 254 6.4 16.1 0.00 0.00 0.00 67 1013.6
20260507085201 15 265 3.2 16.1 0.00 0.00 0.00 67 1013.6
20260507085102 15 288 3.2 11.3 0.00 0.00 0.00 67 1013.6
20260507085002 15 237 3.2 11.3 0.00 0.00 0.00 67 1013.5
20260507084903 15 246 3.2 11.3 0.00 0.00 0.00 67 1013.5
20260507084802 15 220 3.2 11.3 0.00 0.00 0.00 67 1013.5
20260507084708 15 294 4.8 11.3 0.00 0.00 0.00 67 1013.6
20260507084643 15 206 3.2 11.3 0.00 0.00 0.00 67 1013.6
20260507084630 15 234 1.6 11.3 0.00 0.00 0.00 67 1013.5
20260507084618 15 256 1.6 6.4 0.00 0.00 0.00 67 1013.6
20260507084348 15 269 1.6 8.0 0.00 0.00 0.00 67 1013.5
20260507084324 15 265 3.2 9.7 0.00 0.00 0.00 67 1013.5
20260507084242 15 163 3.2 9.7 0.00 0.00 0.00 67 1013.6
20260507083701 15 180 3.2 9.7 0.00 0.00 0.00 66 1013.5
20260507083613 15 197 3.2 9.7 0.00 0.00 0.00 66 1013.5
20260507083501 15 217 3.2 9.7 0.00 0.00 0.00 66 1013.5
20260507083401 15 194 4.8 9.7 0.00 0.00 0.00 66 1013.5
20260507083301 15 171 3.2 9.7 0.00 0.00 0.00 66 1013.5
20260507083201 15 184 3.2 9.7 0.00 0.00 0.00 66 1013.6
20260507083112 15 182 4.8 8.0 0.00 0.00 0.00 66 1013.6
20260507083002 15 202 3.2 8.0 0.00 0.00 0.00 66 1013.5
20260507082900 15 142 3.2 8.0 0.00 0.00 0.00 66 1013.6
20260507082800 15 204 1.6 8.0 0.00 0.00 0.00 66 1013.6
20260507082701 15 197 1.6 6.4 0.00 0.00 0.00 66 1013.6
20260507082635 16 166 1.6 6.4 0.00 0.00 0.00 66 1013.5
20260507082610 16 169 3.2 6.4 0.00 0.00 0.00 66 1013.6
20260507082559 16 193 3.2 6.4 0.00 0.00 0.00 66 1013.6
20260507082548 16 215 3.2 6.4 0.00 0.00 0.00 66 1013.6
20260507082001 16 182 0.0 4.8 0.00 0.00 0.00 66 1013.6
20260507081901 16 220 1.6 4.8 0.00 0.00 0.00 66 1013.7
20260507081802 16 221 1.6 4.8 0.00 0.00 0.00 66 1013.7
20260507081701 16 223 1.6 4.8 0.00 0.00 0.00 66 1013.7
20260507081611 16 237 1.6 6.4 0.00 0.00 0.00 65 1013.7
20260507081502 16 235 1.6 6.4 0.00 0.00 0.00 65 1013.7
20260507081402 16 201 3.2 6.4 0.00 0.00 0.00 65 1013.7
20260507081307 16 193 3.2 6.4 0.00 0.00 0.00 65 1013.7
20260507081203 16 180 3.2 6.4 0.00 0.00 0.00 65 1013.7
20260507081107 16 211 3.2 6.4 0.00 0.00 0.00 65 1013.7
20260507081003 16 229 3.2 6.4 0.00 0.00 0.00 65 1013.8
20260507080902 16 253 3.2 6.4 0.00 0.00 0.00 65 1013.7
20260507080803 16 260 3.2 6.4 0.00 0.00 0.00 65 1013.7
20260507080702 16 270 3.2 6.4 0.00 0.00 0.00 65 1013.7
20260507080605 16 271 3.2 14.5 0.00 0.00 0.00 64 1013.6
20260507080532 16 282 1.6 14.5 0.00 0.00 0.00 64 1013.6
20260507080517 16 254 1.6 14.5 0.00 0.00 0.00 64 1013.6
20260507080158 16 223 3.2 14.5 0.00 0.00 0.00 64 1013.5
20260507080132 16 246 3.2 14.5 0.00 0.00 0.00 64 1013.5
20260507080110 16 192 3.2 14.5 0.00 0.00 0.00 64 1013.5
20260507075749 16 245 8.0 14.5 0.00 0.00 0.00 64 1013.5
20260507075649 16 238 6.4 14.5 0.00 0.00 0.00 63 1013.5
20260507075632 16 269 6.4 12.9 0.00 0.00 0.00 63 1013.6
20260507075607 16 255 4.8 12.9 0.00 0.00 0.00 63 1013.6
20260507075246 16 209 4.8 12.9 0.00 0.00 0.00 63 1013.6
20260507075145 16 263 4.8 12.9 0.00 0.00 0.00 63 1013.6
20260507075118 16 271 4.8 12.9 0.00 0.00 0.00 63 1013.6
20260507075101 17 258 4.8 11.3 0.00 0.00 0.00 63 1013.6
20260507075050 17 269 3.2 11.3 0.00 0.00 0.00 63 1013.6
20260507074815 17 263 3.2 11.3 0.00 0.00 0.00 63 1013.5
20260507074751 17 258 3.2 16.1 0.00 0.00 0.00 62 1013.5
20260507074738 17 130 4.8 16.1 0.00 0.00 0.00 62 1013.5
20260507074201 17 265 3.2 16.1 0.00 0.00 0.00 62 1013.5
20260507074134 17 232 3.2 16.1 0.00 0.00 0.00 63 1013.4
20260507074122 17 228 3.2 16.1 0.00 0.00 0.00 63 1013.5
20260507073850 17 225 6.4 17.7 0.00 0.00 0.00 63 1013.5
20260507073531 17 265 4.8 24.1 0.00 0.00 0.00 62 1013.4
20260507073431 17 250 3.2 24.1 0.00 0.00 0.00 62 1013.4
20260507073331 17 286 4.8 24.1 0.00 0.00 0.00 62 1013.4
20260507073234 17 296 8.0 24.1 0.00 0.00 0.00 62 1013.4
20260507073217 17 273 8.0 24.1 0.00 0.00 0.00 62 1013.4
20260507073150 17 286 8.0 24.1 0.00 0.00 0.00 63 1013.4
20260507072831 17 262 8.0 24.1 0.00 0.00 0.00 63 1013.3
20260507072728 17 254 11.3 24.1 0.00 0.00 0.00 63 1013.3
20260507072629 17 259 12.9 24.1 0.00 0.00 0.00 62 1013.3
20260507072529 17 290 9.7 22.5 0.00 0.00 0.00 63 1013.2
20260507072437 17 262 11.3 22.5 0.00 0.00 0.00 62 1013.2
20260507072405 17 265 12.9 22.5 0.00 0.00 0.00 63 1013.2
20260507072354 17 209 11.3 22.5 0.00 0.00 0.00 63 1013.2
20260507072105 17 238 6.4 20.9 0.00 0.00 0.00 63 1013.1
20260507072051 17 140 4.8 20.9 0.00 0.00 0.00 63 1013.1
20260507071728 17 352 8.0 20.9 0.00 0.00 0.00 63 1013.0
20260507071639 17 275 6.4 20.9 0.00 0.00 0.00 63 1013.0
20260507071612 17 250 8.0 17.7 0.00 0.00 0.00 63 1012.9
20260507071601 17 278 6.4 17.7 0.00 0.00 0.00 63 1012.9
20260507071550 17 202 4.8 16.1 0.00 0.00 0.00 63 1012.9
20260507071537 17 223 6.4 16.1 0.00 0.00 0.00 64 1012.8
20260507071525 16 188 4.8 16.1 0.00 0.00 0.00 64 1012.9
20260507071209 16 223 8.0 14.5 0.00 0.00 0.00 64 1012.9
20260507070630 16 294 4.8 17.7 0.00 0.00 0.00 64 1012.8
20260507070530 16 301 4.8 17.7 0.00 0.00 0.00 65 1012.8
20260507070430 16 261 4.8 17.7 0.00 0.00 0.00 64 1012.7
20260507070328 16 292 4.8 17.7 0.00 0.00 0.00 64 1012.8
20260507070230 17 293 6.4 17.7 0.00 0.00 0.00 64 1012.8
20260507070130 17 317 9.7 17.7 0.00 0.00 0.00 64 1012.7
20260507070040 17 277 9.7 17.7 0.00 0.00 0.00 64 1012.7
20260507070001 17 272 8.0 22.5 0.00 0.00 0.00 63 1012.6
20260507065830 17 267 6.4 22.5 0.00 0.00 0.00 63 1012.6
20260507065729 17 310 4.8 22.5 0.00 0.00 0.00 63 1012.6
20260507065630 17 217 6.4 22.5 0.00 0.00 0.00 63 1012.5
20260507065604 17 202 4.8 22.5 0.00 0.00 0.00 63 1012.5
20260507065548 17 182 6.4 22.5 0.00 0.00 0.00 63 1012.4
20260507065227 17 242 6.4 22.5 0.00 0.00 0.00 63 1012.4
20260507065125 17 239 6.4 22.5 0.00 0.00 0.00 63 1012.4
20260507065057 17 225 6.4 22.5 0.00 0.00 0.00 62 1012.4
20260507065044 17 164 4.8 17.7 0.00 0.00 0.00 62 1012.4
20260507064722 17 239 9.7 17.7 0.00 0.00 0.00 62 1012.4
20260507064623 17 176 6.4 17.7 0.00 0.00 0.00 62 1012.3
20260507064522 17 236 4.8 17.7 0.00 0.00 0.00 62 1012.3
20260507064430 17 203 6.4 17.7 0.00 0.00 0.00 62 1012.3
20260507064415 17 194 8.0 17.7 0.00 0.00 0.00 61 1012.3
20260507064404 17 264 6.4 19.3 0.00 0.00 0.00 61 1012.2
20260507064117 17 267 6.4 19.3 0.00 0.00 0.00 61 1012.2
20260507064105 17 219 4.8 19.3 0.00 0.00 0.00 61 1012.2
20260507063714 17 175 3.2 19.3 0.00 0.00 0.00 61 1012.1
20260507063615 17 227 3.2 19.3 0.00 0.00 0.00 61 1012.1
20260507063513 17 238 3.2 19.3 0.00 0.00 0.00 61 1012.1
20260507063416 17 205 6.4 19.3 0.00 0.00 0.00 60 1012.1
20260507063312 17 198 6.4 19.3 0.00 0.00 0.00 60 1012.1
20260507063212 17 200 4.8 12.9 0.00 0.00 0.00 60 1012.0
20260507063111 17 246 3.2 12.9 0.00 0.00 0.00 60 1012.1
20260507063011 17 274 3.2 12.9 0.00 0.00 0.00 60 1012.1
20260507062910 17 239 4.8 12.9 0.00 0.00 0.00 60 1012.1
20260507062810 17 244 4.8 12.9 0.00 0.00 0.00 60 1012.1
20260507062750 17 221 4.8 9.7 0.00 0.00 0.00 60 1012.1
20260507062739 17 227 4.8 9.7 0.00 0.00 0.00 60 1012.1
20260507062407 17 242 6.4 11.3 0.00 0.00 0.00 60 1012.1
20260507062306 17 236 6.4 11.3 0.00 0.00 0.00 60 1012.1
20260507062205 18 261 3.2 11.3 0.00 0.00 0.00 61 1012.1
20260507062101 18 247 3.2 11.3 0.00 0.00 0.00 61 1012.1
20260507062004 18 160 3.2 11.3 0.00 0.00 0.00 60 1012.2
20260507061902 18 241 3.2 11.3 0.00 0.00 0.00 61 1012.1
20260507061802 18 209 4.8 16.1 0.00 0.00 0.00 60 1012.2
20260507061700 18 127 4.8 16.1 0.00 0.00 0.00 60 1012.3
20260507061608 18 225 6.4 16.1 0.00 0.00 0.00 60 1012.3
20260507061502 18 231 6.4 16.1 0.00 0.00 0.00 60 1012.3
20260507061404 18 198 4.8 16.1 0.00 0.00 0.00 60 1012.3
20260507061339 18 284 3.2 16.1 0.00 0.00 0.00 60 1012.4
20260507061325 18 320 6.4 16.1 0.00 0.00 0.00 60 1012.4
20260507061004 18 216 4.8 19.3 0.00 0.00 0.00 60 1012.5
20260507060916 18 243 3.2 19.3 0.00 0.00 0.00 60 1012.3
20260507060901 18 188 4.8 19.3 0.00 0.00 0.00 60 1012.3
20260507060849 18 282 4.8 19.3 0.00 0.00 0.00 59 1012.4
20260507060838 18 239 4.8 19.3 0.00 0.00 0.00 59 1012.3
20260507060522 18 269 3.2 19.3 0.00 0.00 0.00 59 1012.3
20260507060203 18 148 6.4 19.3 0.00 0.00 0.00 59 1012.3
20260507060101 18 206 4.8 19.3 0.00 0.00 0.00 59 1012.3
20260507060005 18 248 4.8 17.7 0.00 0.00 0.00 59 1012.3
20260507055901 18 197 6.4 17.7 0.00 0.00 0.00 58 1012.3
20260507055805 18 192 6.4 17.7 0.00 0.00 0.00 58 1012.2
20260507055702 18 198 4.8 17.7 0.00 0.00 0.00 58 1012.2
20260507055605 18 187 4.8 14.5 0.00 0.00 0.00 58 1012.2
20260507055501 18 177 6.4 14.5 0.00 0.00 0.00 58 1012.2
20260507055404 18 209 6.4 14.5 0.00 0.00 0.00 58 1012.3
20260507055301 18 262 4.8 14.5 0.00 0.00 0.00 58 1012.2
20260507055206 18 169 4.8 14.5 0.00 0.00 0.00 58 1012.2
20260507055101 18 229 4.8 14.5 0.00 0.00 0.00 58 1012.3
20260507055005 18 178 4.8 14.5 0.00 0.00 0.00 58 1012.2
20260507054900 18 192 3.2 14.5 0.00 0.00 0.00 57 1012.2
20260507054837 18 225 6.4 22.5 0.00 0.00 0.00 57 1012.2
20260507054823 18 203 6.4 22.5 0.00 0.00 0.00 57 1012.3
20260507054501 18 176 4.8 22.5 0.00 0.00 0.00 57 1012.2
20260507054404 18 232 6.4 22.5 0.00 0.00 0.00 57 1012.2
20260507054302 18 236 6.4 22.5 0.00 0.00 0.00 57 1012.2
20260507054203 18 225 6.4 22.5 0.00 0.00 0.00 57 1012.2
20260507054101 18 228 8.0 22.5 0.00 0.00 0.00 57 1012.3
20260507054001 18 254 8.0 22.5 0.00 0.00 0.00 57 1012.3
20260507053900 18 229 6.4 22.5 0.00 0.00 0.00 57 1012.3
20260507053802 18 180 6.4 19.3 0.00 0.00 0.00 57 1012.4
20260507053708 18 252 6.4 19.3 0.00 0.00 0.00 57 1012.4
20260507053600 18 120 6.4 14.5 0.00 0.00 0.00 57 1012.4
20260507053501 18 223 4.8 14.5 0.00 0.00 0.00 57 1012.4
20260507053402 18 223 3.2 14.5 0.00 0.00 0.00 57 1012.4
20260507053301 18 283 3.2 12.9 0.00 0.00 0.00 57 1012.3
20260507053200 18 186 4.8 12.9 0.00 0.00 0.00 57 1012.5
20260507053100 18 246 4.8 14.5 0.00 0.00 0.00 57 1012.5
20260507053014 18 206 4.8 14.5 0.00 0.00 0.00 57 1012.5
20260507052901 18 169 4.8 14.5 0.00 0.00 0.00 57 1012.5
20260507052806 18 205 4.8 14.5 0.00 0.00 0.00 57 1012.5
20260507052702 18 213 3.2 14.5 0.00 0.00 0.00 57 1012.5
20260507052604 18 169 6.4 14.5 0.00 0.00 0.00 57 1012.5
20260507052509 18 262 6.4 14.5 0.00 0.00 0.00 57 1012.5
20260507052436 18 217 6.4 14.5 0.00 0.00 0.00 57 1012.4
20260507052421 18 225 4.8 14.5 0.00 0.00 0.00 57 1012.5
20260507052102 19 177 6.4 12.9 0.00 0.00 0.00 57 1012.5
20260507052024 19 209 4.8 12.9 0.00 0.00 0.00 57 1012.5
20260507051959 19 189 3.2 12.9 0.00 0.00 0.00 57 1012.3
20260507051949 19 198 3.2 12.9 0.00 0.00 0.00 57 1012.4
20260507051936 19 221 4.8 12.9 0.00 0.00 0.00 57 1012.3
20260507051923 19 176 4.8 12.9 0.00 0.00 0.00 57 1012.3
20260507051640 19 170 3.2 12.9 0.00 0.00 0.00 57 1012.3
20260507051101 19 214 4.8 8.0 0.00 0.00 0.00 57 1012.2
20260507051003 19 267 1.6 8.0 0.00 0.00 0.00 57 1012.3
20260507050900 19 178 3.2 8.0 0.00 0.00 0.00 57 1012.2
20260507050802 19 155 3.2 8.0 0.00 0.00 0.00 57 1012.3
20260507050700 19 135 3.2 8.0 0.00 0.00 0.00 57 1012.3
20260507050601 19 232 3.2 9.7 0.00 0.00 0.00 57 1012.3
20260507050529 19 146 3.2 9.7 0.00 0.00 0.00 57 1012.3
20260507050506 19 148 3.2 9.7 0.00 0.00 0.00 57 1012.3
20260507050455 19 186 3.2 9.7 0.00 0.00 0.00 57 1012.3
20260507050442 19 207 1.6 9.7 0.00 0.00 0.00 57 1012.3
20260507045901 19 170 1.6 9.7 0.00 0.00 0.00 57 1012.3
20260507045804 19 192 3.2 9.7 0.00 0.00 0.00 56 1012.4
20260507045701 20 222 3.2 9.7 0.00 0.00 0.00 57 1012.4
20260507045601 20 195 3.2 9.7 0.00 0.00 0.00 57 1012.3
20260507045503 20 184 3.2 17.7 0.00 0.00 0.00 56 1012.4
20260507045403 20 173 3.2 17.7 0.00 0.00 0.00 56 1012.4
20260507045301 20 205 3.2 17.7 0.00 0.00 0.00 56 1012.3
20260507045201 20 185 1.6 17.7 0.00 0.00 0.00 56 1012.4
20260507045102 20 207 3.2 17.7 0.00 0.00 0.00 56 1012.4
20260507045004 20 201 3.2 17.7 0.00 0.00 0.00 55 1012.3
20260507044900 20 235 4.8 17.7 0.00 0.00 0.00 55 1012.4
20260507044801 20 158 6.4 17.7 0.00 0.00 0.00 55 1012.4
20260507044659 20 182 4.8 17.7 0.00 0.00 0.00 54 1012.4
20260507044601 20 185 4.8 17.7 0.00 0.00 0.00 54 1012.4
20260507044542 20 255 4.8 17.7 0.00 0.00 0.00 53 1012.4
20260507044517 20 188 3.2 17.7 0.00 0.00 0.00 52 1012.4
20260507044157 20 214 4.8 17.7 0.00 0.00 0.00 51 1012.4
20260507044058 20 163 6.4 17.7 0.00 0.00 0.00 51 1012.4
20260507043955 20 177 8.0 17.7 0.00 0.00 0.00 51 1012.4
20260507043854 20 195 9.7 17.7 0.00 0.00 0.00 50 1012.5
20260507043754 20 193 6.4 17.7 0.00 0.00 0.00 48 1012.5
20260507043714 20 184 4.8 9.7 0.00 0.00 0.00 46 1012.5
20260507043705 20 159 3.2 9.7 0.00 0.00 0.00 46 1012.5
20260507043654 20 159 3.2 9.7 0.00 0.00 0.00 46 1012.4
20260507043254 20 151 4.8 9.7 0.00 0.00 0.00 46 1012.4
20260507043232 20 178 6.4 9.7 0.00 0.00 0.00 46 1012.4
20260507043219 20 163 6.4 9.7 0.00 0.00 0.00 46 1012.4
20260507042927 21 151 1.6 6.4 0.00 0.00 0.00 45 1012.3
20260507042916 21 108 1.6 3.2 0.00 0.00 0.00 46 1012.3
20260507042905 21 108 1.6 3.2 0.00 0.00 0.00 45 1012.3
20260507042853 21 109 1.6 6.4 0.00 0.00 0.00 44 1012.3
20260507042838 21 82 0.0 6.4 0.00 0.00 0.00 44 1012.3
20260507042817 21 69 0.0 6.4 0.00 0.00 0.00 46 1012.3
20260507042807 21 71 0.0 6.4 0.00 0.00 0.00 45 1012.3
20260507041821 21 140 3.2 6.4 0.00 0.00 0.00 44 1012.2
20260507041808 21 179 1.6 6.4 0.00 0.00 0.00 44 1012.2
20260507041759 21 197 1.6 4.8 0.00 0.00 0.00 44 1012.3
20260507041746 21 196 3.2 4.8 0.00 0.00 0.00 44 1012.2
20260507041724 21 207 3.2 4.8 0.00 0.00 0.00 42 1012.2
20260507041452 21 225 1.6 4.8 0.00 0.00 0.00 42 1012.1
20260507040949 21 96 0.0 1.6 0.00 0.00 0.00 43 1012.1
20260507040654 21 95 0.0 1.6 0.00 0.00 0.00 42 1012.0
20260507040640 21 105 0.0 1.6 0.00 0.00 0.00 42 1012.0
20260507040630 21 109 0.0 1.6 0.00 0.00 0.00 41 1011.9
20260507040230 22 107 0.0 3.2 0.00 0.00 0.00 41 1011.9
20260507040132 22 107 0.0 3.2 0.00 0.00 0.00 42 1011.9
20260507040028 22 105 0.0 3.2 0.00 0.00 0.00 42 1011.9
20260507040011 22 94 0.0 3.2 0.00 0.00 0.00 40 1012.0
20260507035946 22 94 0.0 3.2 0.00 0.00 0.00 40 1011.9
20260507035625 22 95 0.0 3.2 0.00 0.00 0.00 41 1011.8
20260507035518 22 95 0.0 3.2 0.00 0.00 0.00 41 1011.8
20260507035420 22 95 1.6 3.2 0.00 0.00 0.00 41 1011.8
20260507035312 22 95 1.6 3.2 0.00 0.00 0.00 41 1011.8
20260507035212 22 98 1.6 3.2 0.00 0.00 0.00 41 1011.7
20260507035108 22 98 1.6 3.2 0.00 0.00 0.00 41 1011.7
20260507035006 22 98 1.6 3.2 0.00 0.00 0.00 40 1011.6
20260507034902 22 98 1.6 3.2 0.00 0.00 0.00 40 1011.6
20260507034803 22 94 1.6 6.4 0.00 0.00 0.00 40 1011.6
20260507034702 22 129 0.0 6.4 0.00 0.00 0.00 40 1011.6
20260507034642 22 164 0.0 6.4 0.00 0.00 0.00 40 1011.6
20260507034633 22 170 0.0 6.4 0.00 0.00 0.00 41 1011.6
20260507034303 23 170 0.0 8.0 0.00 0.00 0.00 42 1011.5
20260507034201 23 212 0.0 8.0 0.00 0.00 0.00 39 1011.5
20260507034102 23 287 1.6 8.0 0.00 0.00 0.00 39 1011.5
20260507034043 23 291 1.6 8.0 0.00 0.00 0.00 39 1011.5
20260507034022 23 304 1.6 8.0 0.00 0.00 0.00 38 1011.5
20260507033702 23 323 3.2 8.0 0.00 0.00 0.00 39 1011.4
20260507033607 23 308 3.2 8.0 0.00 0.00 0.00 39 1011.4
20260507033456 23 302 3.2 8.0 0.00 0.00 0.00 39 1011.4
20260507033356 23 331 3.2 6.4 0.00 0.00 0.00 39 1011.4
20260507033327 23 323 1.6 6.4 0.00 0.00 0.00 40 1011.4
20260507033315 23 0 1.6 3.2 0.00 0.00 0.00 40 1011.4
20260507032953 23 325 0.0 3.2 0.00 0.00 0.00 41 1011.3
20260507032847 23 319 0.0 3.2 0.00 0.00 0.00 41 1011.3
20260507032736 23 318 0.0 3.2 0.00 0.00 0.00 41 1011.3
20260507032635 23 317 0.0 3.2 0.00 0.00 0.00 41 1011.3
20260507032534 23 316 0.0 3.2 0.00 0.00 0.00 40 1011.3
20260507032509 23 316 0.0 3.2 0.00 0.00 0.00 40 1011.3
20260507032449 23 316 1.6 3.2 0.00 0.00 0.00 40 1011.3
20260507032204 23 302 1.6 3.2 0.00 0.00 0.00 39 1011.3
20260507032152 23 352 0.0 3.2 0.00 0.00 0.00 40 1011.2
20260507031829 23 352 1.6 3.2 0.00 0.00 0.00 39 1011.2
20260507031752 23 352 1.6 3.2 0.00 0.00 0.00 39 1011.2
20260507031735 23 316 1.6 3.2 0.00 0.00 0.00 39 1011.1
20260507031726 23 312 0.0 4.8 0.00 0.00 0.00 39 1011.1
20260507031714 23 309 0.0 4.8 0.00 0.00 0.00 39 1011.1
20260507031653 23 294 1.6 4.8 0.00 0.00 0.00 39 1011.1
20260507031201 24 260 1.6 4.8 0.00 0.00 0.00 39 1011.0
20260507031151 24 263 0.0 4.8 0.00 0.00 0.00 39 1010.9
20260507031129 24 281 1.6 4.8 0.00 0.00 0.00 39 1010.9
20260507031118 24 284 3.2 4.8 0.00 0.00 0.00 39 1010.9
20260507031105 24 257 1.6 4.8 0.00 0.00 0.00 39 1010.9
20260507031052 24 267 1.6 4.8 0.00 0.00 0.00 39 1010.9
20260507030553 24 273 0.0 6.4 0.00 0.00 0.00 38 1010.9
20260507030542 24 274 1.6 6.4 0.00 0.00 0.00 39 1010.9
20260507025702 24 265 1.6 8.0 0.00 0.00 0.00 38 1010.8
20260507025601 24 259 3.2 8.0 0.00 0.00 0.00 38 1010.7
20260507025502 24 246 4.8 9.7 0.00 0.00 0.00 38 1010.7
20260507025415 24 259 4.8 9.7 0.00 0.00 0.00 37 1010.7
20260507025306 24 275 4.8 9.7 0.00 0.00 0.00 37 1010.7
20260507025201 25 257 4.8 9.7 0.00 0.00 0.00 37 1010.7
20260507025102 25 254 4.8 9.7 0.00 0.00 0.00 37 1010.8
20260507025002 25 219 3.2 9.7 0.00 0.00 0.00 37 1010.7
20260507024914 25 269 4.8 9.7 0.00 0.00 0.00 37 1010.7
20260507024804 25 257 4.8 9.7 0.00 0.00 0.00 37 1010.7
20260507024702 25 264 4.8 9.7 0.00 0.00 0.00 37 1010.7
20260507024602 25 252 3.2 9.7 0.00 0.00 0.00 36 1010.8
20260507024503 25 252 3.2 6.4 0.00 0.00 0.00 36 1010.8
20260507024413 25 273 3.2 4.8 0.00 0.00 0.00 37 1010.8
20260507024302 25 244 3.2 6.4 0.00 0.00 0.00 36 1010.7
20260507024204 25 267 3.2 6.4 0.00 0.00 0.00 36 1010.7
20260507024102 25 286 1.6 6.4 0.00 0.00 0.00 36 1010.8
20260507024000 25 277 3.2 6.4 0.00 0.00 0.00 36 1010.8
20260507023911 25 266 3.2 9.7 0.00 0.00 0.00 36 1010.8
20260507023805 25 260 3.2 9.7 0.00 0.00 0.00 36 1010.7
20260507023701 25 315 3.2 9.7 0.00 0.00 0.00 36 1010.7
20260507023602 25 320 3.2 9.7 0.00 0.00 0.00 36 1010.7
20260507023502 25 252 3.2 9.7 0.00 0.00 0.00 36 1010.7
20260507023409 25 273 3.2 9.7 0.00 0.00 0.00 36 1010.7
20260507023312 25 287 3.2 9.7 0.00 0.00 0.00 35 1010.6
20260507023201 25 250 3.2 9.7 0.00 0.00 0.00 36 1010.7
20260507023103 25 281 3.2 9.7 0.00 0.00 0.00 35 1010.7
20260507023001 25 274 1.6 9.7 0.00 0.00 0.00 35 1010.7
20260507022908 25 276 1.6 6.4 0.00 0.00 0.00 35 1010.7
20260507022801 25 225 1.6 6.4 0.00 0.00 0.00 35 1010.6
20260507022725 25 296 3.2 6.4 0.00 0.00 0.00 35 1010.6
20260507022714 25 349 3.2 8.0 0.00 0.00 0.00 35 1010.6
20260507022406 25 298 1.6 11.3 0.00 0.00 0.00 35 1010.6
20260507022252 25 274 1.6 11.3 0.00 0.00 0.00 34 1010.7
20260507022142 25 304 3.2 12.9 0.00 0.00 0.00 35 1010.7
20260507022051 25 252 3.2 12.9 0.00 0.00 0.00 35 1010.7
20260507022035 25 275 3.2 12.9 0.00 0.00 0.00 35 1010.6
20260507021920 25 279 3.2 14.5 0.00 0.00 0.00 35 1010.6
20260507021814 25 279 4.8 17.7 0.00 0.00 0.00 34 1010.6
20260507021703 25 285 4.8 17.7 0.00 0.00 0.00 34 1010.6
20260507021650 25 334 6.4 17.7 0.00 0.00 0.00 34 1010.7
20260507021638 25 287 6.4 17.7 0.00 0.00 0.00 34 1010.6
20260507021355 25 310 4.8 17.7 0.00 0.00 0.00 34 1010.6
20260507021033 26 302 8.0 17.7 0.00 0.00 0.00 34 1010.6
20260507020933 26 268 6.4 17.7 0.00 0.00 0.00 34 1010.6
20260507020832 26 338 6.4 12.9 0.00 0.00 0.00 34 1010.6
20260507020729 26 12 6.4 12.9 0.00 0.00 0.00 34 1010.5
20260507020629 26 289 4.8 12.9 0.00 0.00 0.00 33 1010.5
20260507020529 26 266 6.4 12.9 0.00 0.00 0.00 34 1010.5
20260507020431 26 281 6.4 12.9 0.00 0.00 0.00 34 1010.5
20260507020329 26 5 6.4 12.9 0.00 0.00 0.00 33 1010.4
20260507020304 26 319 6.4 12.9 0.00 0.00 0.00 34 1010.4
20260507020219 26 352 6.4 12.9 0.00 0.00 0.00 34 1010.4
20260507020206 26 346 6.4 12.9 0.00 0.00 0.00 34 1010.5
20260507020156 26 316 4.8 14.5 0.00 0.00 0.00 34 1010.4
20260507020131 26 0 4.8 14.5 0.00 0.00 0.00 35 1010.4
20260507015901 26 277 4.8 14.5 0.00 0.00 0.00 37 1010.4
20260507015629 26 342 3.2 14.5 0.00 0.00 0.00 37 1010.3
20260507015345 26 15 6.4 14.5 0.00 0.00 0.00 39 1010.3
20260507015334 26 0 4.8 14.5 0.00 0.00 0.00 41 1010.3
20260507015101 26 348 0.0 4.8 0.00 0.00 0.00 45 1010.3
20260507014717 26 193 1.6 4.8 0.00 0.00 0.00 44 1010.2
20260507014644 26 215 1.6 6.4 0.00 0.00 0.00 45 1010.2
20260507014636 26 220 1.6 6.4 0.00 0.00 0.00 45 1010.2
20260507014315 26 227 3.2 6.4 0.00 0.00 0.00 45 1010.2
20260507014202 26 242 1.6 6.4 0.00 0.00 0.00 45 1010.2
20260507014102 26 243 1.6 9.7 0.00 0.00 0.00 44 1010.2
20260507014001 26 225 3.2 16.1 0.00 0.00 0.00 44 1010.2
20260507013905 26 155 3.2 16.1 0.00 0.00 0.00 44 1010.2
20260507013833 26 94 3.2 16.1 0.00 0.00 0.00 44 1010.2
20260507013823 26 51 3.2 16.1 0.00 0.00 0.00 44 1010.2
20260507013502 26 122 3.2 19.3 0.00 0.00 0.00 44 1010.3
20260507013401 26 134 4.8 19.3 0.00 0.00 0.00 44 1010.3
20260507013302 26 342 8.0 19.3 0.00 0.00 0.00 44 1010.4
20260507013201 26 317 8.0 19.3 0.00 0.00 0.00 44 1010.4
20260507013104 26 350 3.2 19.3 0.00 0.00 0.00 44 1010.4
20260507013001 26 312 1.6 19.3 0.00 0.00 0.00 44 1010.3
20260507012902 26 259 3.2 19.3 0.00 0.00 0.00 45 1010.3
20260507012800 26 328 8.0 19.3 0.00 0.00 0.00 44 1010.3
20260507012720 26 350 8.0 19.3 0.00 0.00 0.00 44 1010.3
20260507012704 26 229 3.2 19.3 0.00 0.00 0.00 44 1010.3
20260507012652 26 274 1.6 12.9 0.00 0.00 0.00 44 1010.3
20260507012638 26 342 1.6 12.9 0.00 0.00 0.00 44 1010.3
20260507012615 26 350 1.6 12.9 0.00 0.00 0.00 44 1010.2
20260507012123 26 28 4.8 12.9 0.00 0.00 0.00 44 1010.2
20260507011831 26 10 6.4 12.9 0.00 0.00 0.00 45 1010.2
20260507011820 26 263 6.4 12.9 0.00 0.00 0.00 44 1010.2
20260507011809 26 261 6.4 12.9 0.00 0.00 0.00 45 1010.1
20260507011536 26 316 4.8 19.3 0.00 0.00 0.00 44 1010.1
20260507011234 26 227 6.4 19.3 0.00 0.00 0.00 44 1009.8
20260507011222 26 175 6.4 19.3 0.00 0.00 0.00 44 1009.6
20260507010903 26 227 8.0 19.3 0.00 0.00 0.00 44 1009.6
20260507010801 26 158 8.0 19.3 0.00 0.00 0.00 44 1009.5
20260507010705 26 199 11.3 19.3 0.00 0.00 0.00 44 1009.6
20260507010601 26 229 9.7 19.3 0.00 0.00 0.00 44 1009.6
20260507010505 26 174 8.0 19.3 0.00 0.00 0.00 44 1009.6
20260507010401 26 217 8.0 19.3 0.00 0.00 0.00 45 1009.6
20260507010321 26 167 8.0 19.3 0.00 0.00 0.00 45 1009.5
20260507010302 26 202 6.4 19.3 0.00 0.00 0.00 45 1009.6
20260507010251 26 213 6.4 19.3 0.00 0.00 0.00 45 1009.5
20260507005904 26 150 8.0 19.3 0.00 0.00 0.00 44 1009.6
20260507005800 26 186 9.7 19.3 0.00 0.00 0.00 44 1009.5
20260507005704 26 247 9.7 19.3 0.00 0.00 0.00 44 1009.5
20260507005600 26 216 8.0 19.3 0.00 0.00 0.00 44 1009.6
20260507005505 26 240 6.4 17.7 0.00 0.00 0.00 44 1009.6
20260507005400 26 167 6.4 17.7 0.00 0.00 0.00 44 1009.5
20260507005306 26 268 8.0 17.7 0.00 0.00 0.00 44 1009.6
20260507005200 26 167 8.0 17.7 0.00 0.00 0.00 44 1009.6
20260507005102 26 221 8.0 17.7 0.00 0.00 0.00 44 1009.5
20260507005043 26 268 9.7 17.7 0.00 0.00 0.00 43 1009.6
20260507005032 26 241 8.0 17.7 0.00 0.00 0.00 44 1009.6
20260507005008 26 195 8.0 17.7 0.00 0.00 0.00 44 1009.5
20260507004738 26 182 8.0 12.9 0.00 0.00 0.00 43 1009.6
20260507004727 26 251 6.4 12.9 0.00 0.00 0.00 44 1009.6
20260507004713 26 147 4.8 12.9 0.00 0.00 0.00 44 1009.5
20260507004650 26 281 4.8 14.5 0.00 0.00 0.00 44 1009.6
20260507004416 26 223 6.4 14.5 0.00 0.00 0.00 44 1009.6
20260507004403 26 186 6.4 22.5 0.00 0.00 0.00 44 1009.6
20260507004353 26 240 6.4 22.5 0.00 0.00 0.00 44 1009.6
20260507004328 26 148 6.4 22.5 0.00 0.00 0.00 44 1009.6
20260507004057 26 200 6.4 22.5 0.00 0.00 0.00 45 1009.6
20260507003335 27 250 11.3 22.5 0.00 0.00 0.00 44 1009.6
20260507003102 27 264 6.4 19.3 0.00 0.00 0.00 44 1009.7
20260507003051 27 176 8.0 19.3 0.00 0.00 0.00 44 1009.6
20260507002650 27 247 4.8 19.3 0.00 0.00 0.00 45 1009.7
20260507002549 27 229 4.8 19.3 0.00 0.00 0.00 45 1009.6
20260507002449 27 163 6.4 19.3 0.00 0.00 0.00 44 1009.6
20260507002348 27 259 6.4 19.3 0.00 0.00 0.00 44 1009.6
20260507002248 27 221 6.4 19.3 0.00 0.00 0.00 44 1009.5
20260507002146 27 285 8.0 19.3 0.00 0.00 0.00 44 1009.6
20260507002051 27 188 6.4 19.3 0.00 0.00 0.00 44 1009.6
20260507001944 27 284 6.4 19.3 0.00 0.00 0.00 44 1009.5
20260507001915 27 229 8.0 19.3 0.00 0.00 0.00 44 1009.5
20260507001849 27 156 6.4 19.3 0.00 0.00 0.00 44 1009.5
20260507001836 27 213 6.4 17.7 0.00 0.00 0.00 44 1009.6
20260507001822 27 162 6.4 17.7 0.00 0.00 0.00 44 1009.5
20260507001240 27 200 4.8 12.9 0.00 0.00 0.00 43 1009.6
20260507001140 27 173 4.8 12.9 0.00 0.00 0.00 44 1009.6
20260507001110 27 154 6.4 17.7 0.00 0.00 0.00 43 1009.6
20260507001058 27 248 6.4 22.5 0.00 0.00 0.00 43 1009.6
20260507000738 27 277 6.4 22.5 0.00 0.00 0.00 43 1009.5
20260507000636 27 181 6.4 22.5 0.00 0.00 0.00 42 1009.6
20260507000536 27 188 6.4 22.5 0.00 0.00 0.00 42 1009.6
20260507000436 27 211 6.4 22.5 0.00 0.00 0.00 42 1009.5
20260507000335 27 212 6.4 22.5 0.00 0.00 0.00 42 1009.5
20260507000234 27 227 9.7 22.5 0.00 0.00 0.00 42 1009.5
20260507000132 27 219 9.7 22.5 0.00 0.00 0.00 41 1009.4
20260507000031 27 199 8.0 22.5 0.00 0.00 0.00 41 1009.6
20260506235958 27 219 6.4 22.5 0.00 0.00 0.00 42 1009.5
20260506235945 27 170 6.4 22.5 0.00 0.00 0.00 41 1009.5
20260506235921 27 224 6.4 22.5 0.00 0.00 0.00 42 1009.6
20260506235529 27 161 6.4 22.5 0.00 0.00 0.00 41 1009.5
20260506235432 27 178 6.4 22.5 0.00 0.00 0.00 41 1009.6
20260506235329 27 251 8.0 22.5 0.00 0.00 0.00 40 1009.5
20260506235230 27 208 8.0 22.5 0.00 0.00 0.00 40 1009.6
20260506235207 27 190 6.4 22.5 0.00 0.00 0.00 41 1009.5
20260506235151 27 224 4.8 16.1 0.00 0.00 0.00 41 1009.5
20260506234831 27 237 6.4 16.1 0.00 0.00 0.00 41 1009.5
20260506234801 27 188 6.4 16.1 0.00 0.00 0.00 41 1009.6
20260506234750 27 161 8.0 16.1 0.00 0.00 0.00 41 1009.5
20260506234431 27 187 4.8 17.7 0.00 0.00 0.00 40 1009.5
20260506234347 27 188 4.8 17.7 0.00 0.00 0.00 41 1009.5
20260506234321 27 250 6.4 17.7 0.00 0.00 0.00 41 1009.5
20260506234309 27 251 8.0 22.5 0.00 0.00 0.00 40 1009.5
20260506234255 27 237 8.0 22.5 0.00 0.00 0.00 40 1009.4
20260506234244 27 196 6.4 22.5 0.00 0.00 0.00 41 1009.4
20260506233745 27 262 8.0 22.5 0.00 0.00 0.00 41 1009.3
20260506233424 27 65 8.0 22.5 0.00 0.00 0.00 41 1009.4
20260506233407 27 198 9.7 22.5 0.00 0.00 0.00 42 1009.4
20260506233345 28 177 12.9 22.5 0.00 0.00 0.00 41 1009.4
20260506233022 28 161 8.0 17.7 0.00 0.00 0.00 41 1009.4
20260506232921 28 212 6.4 17.7 0.00 0.00 0.00 42 1009.5
20260506232837 28 171 6.4 17.7 0.00 0.00 0.00 42 1009.5
20260506232729 28 148 4.8 17.7 0.00 0.00 0.00 42 1009.5
20260506232714 28 267 6.4 17.7 0.00 0.00 0.00 42 1009.6
20260506232701 28 171 6.4 17.7 0.00 0.00 0.00 42 1009.6
20260506232424 28 188 8.0 16.1 0.00 0.00 0.00 42 1009.7
20260506232401 28 219 8.0 16.1 0.00 0.00 0.00 41 1009.6
20260506232128 28 209 9.7 16.1 0.00 0.00 0.00 42 1009.7
20260506231807 28 137 8.0 19.3 0.00 0.00 0.00 41 1009.7
20260506231706 28 173 6.4 19.3 0.00 0.00 0.00 41 1009.6
20260506231607 28 171 8.0 19.3 0.00 0.00 0.00 41 1009.6
20260506231506 28 166 8.0 19.3 0.00 0.00 0.00 41 1009.7
20260506231405 28 159 6.4 19.3 0.00 0.00 0.00 40 1009.7
20260506231309 28 171 6.4 19.3 0.00 0.00 0.00 40 1009.7
20260506231235 28 184 4.8 19.3 0.00 0.00 0.00 40 1009.6
20260506231222 28 234 4.8 19.3 0.00 0.00 0.00 40 1009.7
20260506230902 28 254 6.4 19.3 0.00 0.00 0.00 41 1009.6
20260506230803 28 184 6.4 19.3 0.00 0.00 0.00 41 1009.7
20260506230701 28 279 9.7 25.7 0.00 0.00 0.00 40 1009.7
20260506230603 28 167 9.7 25.7 0.00 0.00 0.00 40 1009.7
20260506230501 28 165 8.0 25.7 0.00 0.00 0.00 40 1009.7
20260506230414 28 244 8.0 25.7 0.00 0.00 0.00 40 1009.7
20260506230358 28 162 9.7 25.7 0.00 0.00 0.00 40 1009.6
20260506230336 28 202 9.7 25.7 0.00 0.00 0.00 40 1009.7
20260506230320 28 151 8.0 25.7 0.00 0.00 0.00 40 1009.7
20260506230049 28 181 9.7 25.7 0.00 0.00 0.00 39 1009.8
20260506225727 28 149 6.4 16.1 0.00 0.00 0.00 40 1009.8
20260506225715 28 263 4.8 16.1 0.00 0.00 0.00 40 1009.8
20260506225436 28 229 4.8 22.5 0.00 0.00 0.00 40 1009.8
20260506225425 28 234 6.4 22.5 0.00 0.00 0.00 40 1009.8
20260506225052 28 155 6.4 22.5 0.00 0.00 0.00 39 1009.8
20260506225026 28 242 6.4 22.5 0.00 0.00 0.00 39 1009.9
20260506225012 28 161 8.0 22.5 0.00 0.00 0.00 39 1010.1
20260506224650 28 176 9.7 22.5 0.00 0.00 0.00 38 1010.1
20260506224549 28 187 6.4 22.5 0.00 0.00 0.00 38 1010.1
20260506224522 28 298 6.4 19.3 0.00 0.00 0.00 38 1010.1
20260506224510 28 238 9.7 19.3 0.00 0.00 0.00 38 1010.1
20260506224147 28 184 9.7 19.3 0.00 0.00 0.00 38 1010.1
20260506224045 28 161 9.7 19.3 0.00 0.00 0.00 38 1010.1
20260506223945 28 236 9.7 19.3 0.00 0.00 0.00 38 1010.1
20260506223845 28 232 6.4 19.3 0.00 0.00 0.00 38 1010.1
20260506223744 28 209 4.8 16.1 0.00 0.00 0.00 38 1010.1
20260506223643 28 286 4.8 16.1 0.00 0.00 0.00 38 1010.1
20260506223542 28 219 4.8 16.1 0.00 0.00 0.00 38 1010.1
20260506223442 28 184 6.4 16.1 0.00 0.00 0.00 38 1010.1
20260506223341 28 204 6.4 16.1 0.00 0.00 0.00 38 1010.1
20260506223243 28 259 6.4 16.1 0.00 0.00 0.00 38 1010.2
20260506223149 28 253 6.4 17.7 0.00 0.00 0.00 37 1010.2
20260506223133 28 221 8.0 17.7 0.00 0.00 0.00 38 1010.1
20260506223121 28 335 8.0 17.7 0.00 0.00 0.00 37 1010.1
20260506223110 28 211 6.4 17.7 0.00 0.00 0.00 38 1010.2
20260506223055 28 210 4.8 17.7 0.00 0.00 0.00 38 1010.1
20260506222434 28 192 6.4 17.7 0.00 0.00 0.00 38 1010.2
20260506222334 28 157 8.0 19.3 0.00 0.00 0.00 38 1010.2
20260506222237 28 209 6.4 19.3 0.00 0.00 0.00 38 1010.2
20260506222132 28 175 6.4 19.3 0.00 0.00 0.00 37 1010.2
20260506222032 28 174 6.4 19.3 0.00 0.00 0.00 37 1010.2
20260506221929 28 184 4.8 19.3 0.00 0.00 0.00 37 1010.3
20260506221831 28 148 6.4 19.3 0.00 0.00 0.00 37 1010.2
20260506221734 28 208 6.4 19.3 0.00 0.00 0.00 36 1010.3
20260506221629 28 203 6.4 19.3 0.00 0.00 0.00 37 1010.3
20260506221528 28 182 6.4 19.3 0.00 0.00 0.00 37 1010.3
20260506221430 28 183 4.8 19.3 0.00 0.00 0.00 37 1010.3
20260506221401 28 194 4.8 19.3 0.00 0.00 0.00 37 1010.4
20260506221350 28 174 6.4 19.3 0.00 0.00 0.00 37 1010.3
20260506221326 28 188 6.4 19.3 0.00 0.00 0.00 37 1010.3
20260506221312 28 165 8.0 19.3 0.00 0.00 0.00 37 1010.4
20260506220732 28 186 6.4 19.3 0.00 0.00 0.00 37 1010.4
20260506220659 28 146 8.0 20.9 0.00 0.00 0.00 36 1010.4
20260506220644 28 262 9.7 20.9 0.00 0.00 0.00 36 1010.4
20260506220633 28 134 8.0 20.9 0.00 0.00 0.00 35 1010.3
20260506220620 28 141 6.4 20.9 0.00 0.00 0.00 36 1010.3
20260506220026 28 198 6.4 20.9 0.00 0.00 0.00 36 1010.4
20260506220003 28 234 11.3 20.9 0.00 0.00 0.00 36 1010.5
20260506215949 28 217 9.7 20.9 0.00 0.00 0.00 36 1010.4
20260506215621 28 142 4.8 20.9 0.00 0.00 0.00 37 1010.4
20260506215521 28 210 6.4 20.9 0.00 0.00 0.00 37 1010.5
20260506215422 28 240 6.4 20.9 0.00 0.00 0.00 36 1010.4
20260506215406 28 160 4.8 20.9 0.00 0.00 0.00 36 1010.4
20260506215355 28 236 6.4 20.9 0.00 0.00 0.00 37 1010.5
20260506215017 28 192 11.3 20.9 0.00 0.00 0.00 35 1010.6
20260506214956 28 150 9.7 20.9 0.00 0.00 0.00 35 1010.5
20260506214945 28 189 6.4 20.9 0.00 0.00 0.00 36 1010.5
20260506214615 28 261 4.8 20.9 0.00 0.00 0.00 35 1010.5
20260506214514 28 196 6.4 20.9 0.00 0.00 0.00 35 1010.6
20260506214414 28 243 6.4 20.9 0.00 0.00 0.00 36 1010.6
20260506214313 28 213 6.4 20.9 0.00 0.00 0.00 36 1010.7
20260506214223 28 207 8.0 20.9 0.00 0.00 0.00 37 1010.7
20260506214111 28 244 11.3 20.9 0.00 0.00 0.00 37 1010.7
20260506214012 28 170 14.5 24.1 0.00 0.00 0.00 37 1010.7
20260506213910 28 196 14.5 24.1 0.00 0.00 0.00 37 1010.7
20260506213812 28 162 14.5 24.1 0.00 0.00 0.00 36 1010.8
20260506213719 28 171 9.7 25.7 0.00 0.00 0.00 36 1010.8
20260506213609 28 194 6.4 25.7 0.00 0.00 0.00 37 1010.8
20260506213508 28 195 6.4 25.7 0.00 0.00 0.00 38 1010.8
20260506213407 28 190 6.4 25.7 0.00 0.00 0.00 37 1010.8
20260506213306 28 226 6.4 25.7 0.00 0.00 0.00 37 1010.9
20260506213208 28 235 6.4 25.7 0.00 0.00 0.00 37 1010.9
20260506213105 28 232 4.8 25.7 0.00 0.00 0.00 37 1010.9
20260506213004 28 254 11.3 25.7 0.00 0.00 0.00 39 1010.9
20260506212910 28 194 11.3 25.7 0.00 0.00 0.00 37 1010.9
20260506212855 28 192 9.7 25.7 0.00 0.00 0.00 37 1010.9
20260506212832 28 167 9.7 25.7 0.00 0.00 0.00 39 1010.9
20260506212822 28 180 4.8 25.7 0.00 0.00 0.00 39 1010.9
20260506212807 28 255 6.4 25.7 0.00 0.00 0.00 39 1010.9
20260506212757 28 221 9.7 25.7 0.00 0.00 0.00 39 1011.0
20260506212222 28 161 12.9 25.7 0.00 0.00 0.00 38 1011.0
20260506211903 28 153 8.0 22.5 0.00 0.00 0.00 39 1011.0
20260506211804 28 181 8.0 19.3 0.00 0.00 0.00 38 1011.0
20260506211714 28 236 4.8 19.3 0.00 0.00 0.00 38 1011.0
20260506211602 28 165 4.8 29.0 0.00 0.00 0.00 39 1011.1
20260506211536 28 207 9.7 29.0 0.00 0.00 0.00 38 1011.1
20260506211522 28 213 11.3 29.0 0.00 0.00 0.00 38 1011.1
20260506211211 28 186 8.0 29.0 0.00 0.00 0.00 37 1011.2
20260506211104 28 179 9.7 29.0 0.00 0.00 0.00 37 1011.2
20260506211034 28 216 8.0 29.0 0.00 0.00 0.00 37 1011.1
20260506211022 28 233 9.7 29.0 0.00 0.00 0.00 37 1011.1
20260506210705 28 174 8.0 29.0 0.00 0.00 0.00 37 1011.0
20260506210604 28 271 9.7 19.3 0.00 0.00 0.00 38 1011.0
20260506210501 28 263 9.7 19.3 0.00 0.00 0.00 38 1011.1
20260506210403 28 200 8.0 19.3 0.00 0.00 0.00 37 1011.1